Wetterdaten: Sonntag, 05.11.2023
Datum Zeit Temp. Aussen Temp. o. S. Temp +5cm Feuchte Auss Luftdruck Regen Sonnenschein Regendauer Solar Windben Empfang
05.11.2023 00:00 9,7 C 8,9 C 4,4 C 90 % 974,2 hPa 0,0 l/m 0 min 0 min 0 W/m 3,2 km/h (1 Bft) 100,00 %
05.11.2023 00:02 9,7 C 8,3 C 4,4 C 90 % 974,2 hPa 0,0 l/m 0 min 0 min 0 W/m 3,2 km/h (1 Bft) 95,12 %
05.11.2023 00:04 9,6 C 8,3 C 4,4 C 90 % 974,2 hPa 0,0 l/m 0 min 0 min 0 W/m 6,4 km/h (2 Bft) 96,08 %
05.11.2023 00:08 9,6 C 8,9 C 4,4 C 90 % 974,2 hPa 0,0 l/m 0 min 0 min 0 W/m 12,9 km/h (3 Bft) 93,62 %
05.11.2023 00:09 9,6 C 8,9 C 4,4 C 90 % 974,2 hPa 0,0 l/m 0 min 0 min 0 W/m 3,2 km/h (1 Bft) 100,00 %
05.11.2023 00:10 9,6 C 8,9 C 4,4 C 90 % 974,2 hPa 0,0 l/m 0 min 0 min 0 W/m 12,9 km/h (3 Bft) 96,49 %
05.11.2023 00:14 9,6 C 8,9 C 4,4 C 90 % 974,2 hPa 0,0 l/m 0 min 0 min 0 W/m 6,4 km/h (2 Bft) 100,00 %
05.11.2023 00:20 9,5 C 8,9 C 4,4 C 90 % 974,2 hPa 0,0 l/m 0 min 0 min 0 W/m 6,4 km/h (2 Bft) 91,18 %
05.11.2023 00:21 9,5 C 8,9 C 4,4 C 90 % 974,2 hPa 0,0 l/m 0 min 0 min 0 W/m 3,2 km/h (1 Bft) 86,96 %
05.11.2023 00:26 9,5 C 8,9 C 4,4 C 90 % 974,2 hPa 0,0 l/m 0 min 0 min 0 W/m 6,4 km/h (2 Bft) 95,74 %
05.11.2023 00:28 9,5 C 8,9 C 4,4 C 90 % 974,2 hPa 0,0 l/m 0 min 0 min 0 W/m 3,2 km/h (1 Bft) 93,62 %
05.11.2023 00:30 9,4 C 8,9 C 4,4 C 90 % 974,2 hPa 0,0 l/m 0 min 0 min 0 W/m 3,2 km/h (1 Bft) 37,50 %
05.11.2023 00:32 9,4 C 8,9 C 4,4 C 90 % 974,1 hPa 0,0 l/m 0 min 0 min 0 W/m 3,2 km/h (1 Bft) 100,00 %
05.11.2023 00:34 9,5 C 8,9 C 4,4 C 90 % 974,1 hPa 0,0 l/m 0 min 0 min 0 W/m 3,2 km/h (1 Bft) 97,87 %
05.11.2023 00:36 9,4 C 8,9 C 4,4 C 90 % 974,1 hPa 0,0 l/m 0 min 0 min 0 W/m 3,2 km/h (1 Bft) 95,74 %
05.11.2023 00:38 9,4 C 8,9 C 4,4 C 91 % 974,0 hPa 0,0 l/m 0 min 0 min 0 W/m 6,4 km/h (2 Bft) 97,87 %
05.11.2023 00:40 9,4 C 8,9 C 4,4 C 91 % 974,0 hPa 0,0 l/m 0 min 0 min 0 W/m 6,4 km/h (2 Bft) 95,74 %
05.11.2023 00:42 9,5 C 8,9 C 4,4 C 91 % 974,0 hPa 0,0 l/m 0 min 0 min 0 W/m 6,4 km/h (2 Bft) 97,87 %
05.11.2023 00:44 9,5 C 8,9 C 4,4 C 91 % 974,0 hPa 0,0 l/m 0 min 0 min 0 W/m 12,9 km/h (3 Bft) 95,74 %
05.11.2023 00:46 9,5 C 8,9 C 4,4 C 91 % 973,9 hPa 0,0 l/m 0 min 0 min 0 W/m 6,4 km/h (2 Bft) 97,87 %
05.11.2023 00:48 9,5 C 8,9 C 5,0 C 91 % 973,9 hPa 0,0 l/m 0 min 0 min 0 W/m 6,4 km/h (2 Bft) 97,83 %
05.11.2023 00:50 9,5 C 8,9 C 5,0 C 91 % 973,9 hPa 0,0 l/m 0 min 0 min 0 W/m 6,4 km/h (2 Bft) 97,87 %
05.11.2023 00:52 9,6 C 8,9 C 5,0 C 91 % 973,9 hPa 0,0 l/m 0 min 0 min 0 W/m 6,4 km/h (2 Bft) 97,87 %
05.11.2023 00:54 9,6 C 8,9 C 5,0 C 91 % 973,9 hPa 0,0 l/m 0 min 0 min 0 W/m 6,4 km/h (2 Bft) 98,11 %
05.11.2023 00:56 9,6 C 8,9 C 5,0 C 91 % 973,8 hPa 0,0 l/m 0 min 0 min 0 W/m 6,4 km/h (2 Bft) 97,87 %
05.11.2023 00:58 9,6 C 8,9 C 5,0 C 91 % 973,8 hPa 0,0 l/m 0 min 0 min 0 W/m 6,4 km/h (2 Bft) 100,00 %
05.11.2023 01:00 9,6 C 8,9 C 5,0 C 91 % 973,8 hPa 0,0 l/m 0 min 0 min 0 W/m 6,4 km/h (2 Bft) 95,74 %
05.11.2023 01:02 9,6 C 8,9 C 5,0 C 91 % 973,7 hPa 0,0 l/m 0 min 0 min 0 W/m 6,4 km/h (2 Bft) 97,87 %
05.11.2023 01:04 9,6 C 8,9 C 5,0 C 91 % 973,7 hPa 0,0 l/m 0 min 0 min 0 W/m 6,4 km/h (2 Bft) 100,00 %
05.11.2023 01:06 9,7 C 8,9 C 5,0 C 91 % 973,7 hPa 0,0 l/m 0 min 0 min 0 W/m 6,4 km/h (2 Bft) 100,00 %
05.11.2023 01:08 9,7 C 8,9 C 5,0 C 91 % 973,7 hPa 0,0 l/m 0 min 0 min 0 W/m 12,9 km/h (3 Bft) 100,00 %
05.11.2023 01:10 9,7 C 8,9 C 5,0 C 91 % 973,6 hPa 0,0 l/m 0 min 0 min 0 W/m 12,9 km/h (3 Bft) 95,74 %
05.11.2023 01:12 9,7 C 8,9 C 5,0 C 91 % 973,6 hPa 0,0 l/m 0 min 0 min 0 W/m 6,4 km/h (2 Bft) 97,87 %
05.11.2023 01:14 9,7 C 8,9 C 5,0 C 91 % 973,6 hPa 0,0 l/m 0 min 0 min 0 W/m 12,9 km/h (3 Bft) 100,00 %
05.11.2023 01:16 9,7 C 8,9 C 5,0 C 91 % 973,6 hPa 0,0 l/m 0 min 0 min 0 W/m 6,4 km/h (2 Bft) 97,87 %
05.11.2023 01:18 9,7 C 8,9 C 5,0 C 91 % 973,6 hPa 0,0 l/m 0 min 0 min 0 W/m 6,4 km/h (2 Bft) 97,87 %
05.11.2023 01:20 9,7 C 8,9 C 5,0 C 91 % 973,6 hPa 0,0 l/m 0 min 0 min 0 W/m 12,9 km/h (3 Bft) 97,87 %
05.11.2023 01:22 9,7 C 8,9 C 5,0 C 91 % 973,6 hPa 0,0 l/m 0 min 0 min 0 W/m 12,9 km/h (3 Bft) 100,00 %
05.11.2023 01:24 9,6 C 8,9 C 5,0 C 91 % 973,5 hPa 0,0 l/m 0 min 0 min 0 W/m 6,4 km/h (2 Bft) 100,00 %
05.11.2023 01:26 9,6 C 8,9 C 5,0 C 91 % 973,4 hPa 0,0 l/m 0 min 0 min 0 W/m 6,4 km/h (2 Bft) 97,87 %
05.11.2023 01:28 9,6 C 8,9 C 5,0 C 91 % 973,4 hPa 0,0 l/m 0 min 0 min 0 W/m 12,9 km/h (3 Bft) 100,00 %
05.11.2023 01:30 9,6 C 8,9 C 5,0 C 91 % 973,3 hPa 0,0 l/m 0 min 0 min 0 W/m 12,9 km/h (3 Bft) 97,87 %
05.11.2023 01:32 9,6 C 8,9 C 5,0 C 91 % 973,4 hPa 0,0 l/m 0 min 0 min 0 W/m 6,4 km/h (2 Bft) 97,87 %
05.11.2023 01:34 9,6 C 8,9 C 5,0 C 91 % 973,4 hPa 0,0 l/m 0 min 0 min 0 W/m 6,4 km/h (2 Bft) 97,87 %
05.11.2023 01:36 9,6 C 8,9 C 5,0 C 91 % 973,3 hPa 0,0 l/m 0 min 0 min 0 W/m 6,4 km/h (2 Bft) 97,87 %
05.11.2023 01:38 9,6 C 8,9 C 5,0 C 91 % 973,3 hPa 0,0 l/m 0 min 0 min 0 W/m 3,2 km/h (1 Bft) 95,74 %
05.11.2023 01:40 9,6 C 8,9 C 5,0 C 91 % 973,2 hPa 0,0 l/m 0 min 0 min 0 W/m 9,7 km/h (2 Bft) 97,87 %
05.11.2023 01:42 9,6 C 8,9 C 5,0 C 91 % 973,2 hPa 0,0 l/m 0 min 0 min 0 W/m 6,4 km/h (2 Bft) 97,87 %
05.11.2023 01:44 9,6 C 8,9 C 5,0 C 91 % 973,2 hPa 0,0 l/m 0 min 0 min 0 W/m 6,4 km/h (2 Bft) 97,83 %
05.11.2023 01:46 9,5 C 8,9 C 5,0 C 91 % 973,1 hPa 0,0 l/m 0 min 0 min 0 W/m 6,4 km/h (2 Bft) 95,74 %
05.11.2023 01:48 9,5 C 8,9 C 5,0 C 92 % 973,2 hPa 0,0 l/m 0 min 0 min 0 W/m 12,9 km/h (3 Bft) 95,74 %
05.11.2023 01:50 9,5 C 8,9 C 5,0 C 92 % 973,1 hPa 0,0 l/m 0 min 0 min 0 W/m 12,9 km/h (3 Bft) 95,74 %
05.11.2023 01:52 9,5 C 8,9 C 5,0 C 92 % 973,2 hPa 0,0 l/m 0 min 0 min 0 W/m 19,3 km/h (3 Bft) 95,74 %
05.11.2023 01:54 9,5 C 8,9 C 5,0 C 92 % 973,2 hPa 0,0 l/m 0 min 0 min 0 W/m 6,4 km/h (2 Bft) 95,45 %
05.11.2023 01:56 9,6 C 8,9 C 5,0 C 92 % 973,2 hPa 0,0 l/m 0 min 2 min 0 W/m 16,1 km/h (3 Bft) 93,62 %
05.11.2023 01:58 9,6 C 8,9 C 5,0 C 92 % 973,2 hPa 0,0 l/m 0 min 2 min 0 W/m 9,7 km/h (2 Bft) 91,49 %
05.11.2023 02:00 9,6 C 8,9 C 5,0 C 92 % 973,1 hPa 0,2 l/m 0 min 2 min 0 W/m 6,4 km/h (2 Bft) 95,74 %
05.11.2023 02:02 9,6 C 8,9 C 5,0 C 92 % 973,1 hPa 0,0 l/m 0 min 2 min 0 W/m 12,9 km/h (3 Bft) 93,62 %
05.11.2023 02:04 9,6 C 8,9 C 5,0 C 92 % 973,1 hPa 0,0 l/m 0 min 2 min 0 W/m 19,3 km/h (3 Bft) 95,56 %
05.11.2023 02:06 9,6 C 8,9 C 5,0 C 92 % 973,1 hPa 0,0 l/m 0 min 2 min 0 W/m 16,1 km/h (3 Bft) 94,92 %
05.11.2023 02:08 9,5 C 8,3 C 5,0 C 92 % 973,1 hPa 0,0 l/m 0 min 2 min 0 W/m 6,4 km/h (2 Bft) 94,29 %
05.11.2023 02:10 9,5 C 8,3 C 5,0 C 93 % 973,1 hPa 0,0 l/m 0 min 2 min 0 W/m 9,7 km/h (2 Bft) 93,62 %
05.11.2023 02:12 9,5 C 8,3 C 5,0 C 93 % 973,1 hPa 0,0 l/m 0 min 2 min 0 W/m 16,1 km/h (3 Bft) 97,83 %
05.11.2023 02:14 9,5 C 8,3 C 5,0 C 93 % 973,1 hPa 0,2 l/m 0 min 2 min 0 W/m 3,2 km/h (1 Bft) 97,87 %
05.11.2023 02:16 9,5 C 8,3 C 5,0 C 93 % 973,1 hPa 0,0 l/m 0 min 2 min 0 W/m 16,1 km/h (3 Bft) 97,87 %
05.11.2023 02:18 9,4 C 8,3 C 5,0 C 93 % 973,0 hPa 0,2 l/m 0 min 2 min 0 W/m 6,4 km/h (2 Bft) 97,87 %
05.11.2023 02:20 9,4 C 8,3 C 5,0 C 93 % 973,1 hPa 0,0 l/m 0 min 2 min 0 W/m 6,4 km/h (2 Bft) 100,00 %
05.11.2023 02:22 9,4 C 8,3 C 5,0 C 93 % 973,0 hPa 0,0 l/m 0 min 2 min 0 W/m 12,9 km/h (3 Bft) 100,00 %
05.11.2023 02:24 9,4 C 8,3 C 5,0 C 94 % 972,9 hPa 0,2 l/m 0 min 2 min 0 W/m 12,9 km/h (3 Bft) 100,00 %
05.11.2023 02:26 9,4 C 8,3 C 5,0 C 94 % 972,9 hPa 0,0 l/m 0 min 2 min 0 W/m 6,4 km/h (2 Bft) 100,00 %
05.11.2023 02:28 9,4 C 8,3 C 5,0 C 94 % 972,9 hPa 0,0 l/m 0 min 2 min 0 W/m 12,9 km/h (3 Bft) 100,00 %
05.11.2023 02:30 9,4 C 8,3 C 5,0 C 94 % 972,8 hPa 0,2 l/m 0 min 2 min 0 W/m 6,4 km/h (2 Bft) 97,87 %
05.11.2023 02:32 9,4 C 8,3 C 5,0 C 94 % 972,8 hPa 0,0 l/m 0 min 2 min 0 W/m 9,7 km/h (2 Bft) 97,87 %
05.11.2023 02:34 9,4 C 8,3 C 5,0 C 94 % 972,7 hPa 0,0 l/m 0 min 2 min 0 W/m 6,4 km/h (2 Bft) 100,00 %
05.11.2023 02:36 9,4 C 8,3 C 5,0 C 94 % 972,7 hPa 0,0 l/m 0 min 2 min 0 W/m 6,4 km/h (2 Bft) 95,65 %
05.11.2023 02:38 9,3 C 8,3 C 5,0 C 94 % 972,6 hPa 0,2 l/m 0 min 2 min 0 W/m 6,4 km/h (2 Bft) 100,00 %
05.11.2023 02:40 9,3 C 8,3 C 5,0 C 95 % 972,6 hPa 0,0 l/m 0 min 2 min 0 W/m 12,9 km/h (3 Bft) 100,00 %
05.11.2023 02:42 9,3 C 8,3 C 5,0 C 95 % 972,5 hPa 0,0 l/m 0 min 2 min 0 W/m 12,9 km/h (3 Bft) 100,00 %
05.11.2023 02:44 9,3 C 8,3 C 5,0 C 95 % 972,5 hPa 0,2 l/m 0 min 2 min 0 W/m 6,4 km/h (2 Bft) 100,00 %
05.11.2023 02:46 9,3 C 8,3 C 5,0 C 95 % 972,4 hPa 0,0 l/m 0 min 2 min 0 W/m 9,7 km/h (2 Bft) 100,00 %
05.11.2023 02:48 9,4 C 8,3 C 5,0 C 95 % 972,3 hPa 0,0 l/m 0 min 2 min 0 W/m 6,4 km/h (2 Bft) 97,83 %
05.11.2023 02:50 9,3 C 8,3 C 5,0 C 95 % 972,3 hPa 0,0 l/m 0 min 2 min 0 W/m 9,7 km/h (2 Bft) 100,00 %
05.11.2023 02:52 9,3 C 8,3 C 5,0 C 95 % 972,3 hPa 0,2 l/m 0 min 2 min 0 W/m 6,4 km/h (2 Bft) 100,00 %
05.11.2023 02:54 9,4 C 8,3 C 5,0 C 95 % 972,2 hPa 0,0 l/m 0 min 2 min 0 W/m 12,9 km/h (3 Bft) 97,87 %
05.11.2023 02:56 9,4 C 8,3 C 5,0 C 95 % 972,2 hPa 0,0 l/m 0 min 2 min 0 W/m 9,7 km/h (2 Bft) 100,00 %
05.11.2023 02:58 9,3 C 8,3 C 5,0 C 95 % 972,2 hPa 0,0 l/m 0 min 2 min 0 W/m 6,4 km/h (2 Bft) 100,00 %
05.11.2023 03:00 9,4 C 8,3 C 5,0 C 95 % 972,2 hPa 0,0 l/m 0 min 2 min 0 W/m 6,4 km/h (2 Bft) 100,00 %
05.11.2023 03:02 9,4 C 8,3 C 5,0 C 95 % 972,2 hPa 0,2 l/m 0 min 2 min 0 W/m 6,4 km/h (2 Bft) 100,00 %
05.11.2023 03:04 9,4 C 8,3 C 5,0 C 95 % 972,2 hPa 0,0 l/m 0 min 2 min 0 W/m 9,7 km/h (2 Bft) 100,00 %
05.11.2023 03:08 9,4 C 8,3 C 5,0 C 96 % 972,1 hPa 0,0 l/m 0 min 4 min 0 W/m 9,7 km/h (2 Bft) 100,00 %
05.11.2023 03:10 9,4 C 8,3 C 5,0 C 96 % 972,1 hPa 0,0 l/m 0 min 2 min 0 W/m 12,9 km/h (3 Bft) 100,00 %
05.11.2023 03:12 9,4 C 8,3 C 5,0 C 96 % 972,0 hPa 0,2 l/m 0 min 2 min 0 W/m 6,4 km/h (2 Bft) 100,00 %
05.11.2023 03:14 9,3 C 8,3 C 5,0 C 96 % 972,0 hPa 0,0 l/m 0 min 2 min 0 W/m 6,4 km/h (2 Bft) 97,87 %
05.11.2023 03:16 9,3 C 8,3 C 5,0 C 96 % 972,0 hPa 0,0 l/m 0 min 2 min 0 W/m 12,9 km/h (3 Bft) 95,74 %
05.11.2023 03:18 9,3 C 8,3 C 5,0 C 96 % 971,9 hPa 0,0 l/m 0 min 0 min 0 W/m 9,7 km/h (2 Bft) 97,83 %
05.11.2023 03:20 9,3 C 8,3 C 5,0 C 96 % 971,9 hPa 0,0 l/m 0 min 0 min 0 W/m 6,4 km/h (2 Bft) 97,87 %
05.11.2023 03:22 9,3 C 8,3 C 5,0 C 96 % 971,8 hPa 0,0 l/m 0 min 0 min 0 W/m 12,9 km/h (3 Bft) 97,87 %
05.11.2023 03:24 9,3 C 8,3 C 5,0 C 96 % 971,9 hPa 0,2 l/m 0 min 2 min 0 W/m 6,4 km/h (2 Bft) 97,87 %
05.11.2023 03:26 9,3 C 8,3 C 5,0 C 96 % 971,9 hPa 0,0 l/m 0 min 2 min 0 W/m 12,9 km/h (3 Bft) 95,74 %
05.11.2023 03:28 9,3 C 8,3 C 5,0 C 96 % 971,8 hPa 0,0 l/m 0 min 2 min 0 W/m 9,7 km/h (2 Bft) 97,87 %
05.11.2023 03:30 9,3 C 8,3 C 5,0 C 96 % 971,9 hPa 0,0 l/m 0 min 2 min 0 W/m 19,3 km/h (3 Bft) 95,74 %
05.11.2023 03:32 9,3 C 8,3 C 5,0 C 96 % 971,8 hPa 0,0 l/m 0 min 2 min 0 W/m 16,1 km/h (3 Bft) 97,83 %
05.11.2023 03:34 9,4 C 8,3 C 5,0 C 96 % 971,8 hPa 0,2 l/m 0 min 2 min 0 W/m 6,4 km/h (2 Bft) 93,62 %
05.11.2023 03:36 9,3 C 8,3 C 5,0 C 96 % 971,8 hPa 0,0 l/m 0 min 2 min 0 W/m 12,9 km/h (3 Bft) 95,74 %
05.11.2023 03:38 9,4 C 8,3 C 5,0 C 96 % 971,8 hPa 0,0 l/m 0 min 0 min 0 W/m 9,7 km/h (2 Bft) 95,74 %
05.11.2023 03:40 9,4 C 8,3 C 5,0 C 96 % 971,8 hPa 0,0 l/m 0 min 2 min 0 W/m 6,4 km/h (2 Bft) 50,00 %
05.11.2023 03:42 9,4 C 8,3 C 5,0 C 96 % 971,8 hPa 0,0 l/m 0 min 2 min 0 W/m 12,9 km/h (3 Bft) 93,62 %
05.11.2023 03:44 9,4 C 8,3 C 5,0 C 96 % 971,7 hPa 0,0 l/m 0 min 0 min 0 W/m 6,4 km/h (2 Bft) 95,74 %
05.11.2023 03:46 9,4 C 8,3 C 5,6 C 96 % 971,7 hPa 0,0 l/m 0 min 0 min 0 W/m 12,9 km/h (3 Bft) 95,74 %
05.11.2023 03:48 9,4 C 8,9 C 5,0 C 96 % 971,7 hPa 0,0 l/m 0 min 0 min 0 W/m 12,9 km/h (3 Bft) 93,48 %
05.11.2023 03:50 9,4 C 8,9 C 5,0 C 96 % 971,7 hPa 0,0 l/m 0 min 0 min 0 W/m 12,9 km/h (3 Bft) 95,74 %
05.11.2023 03:52 9,4 C 8,9 C 5,0 C 96 % 971,7 hPa 0,2 l/m 0 min 2 min 0 W/m 6,4 km/h (2 Bft) 93,62 %
05.11.2023 03:54 9,4 C 8,9 C 5,6 C 96 % 971,6 hPa 0,0 l/m 0 min 2 min 0 W/m 6,4 km/h (2 Bft) 97,22 %
05.11.2023 03:56 9,4 C 8,9 C 5,6 C 97 % 971,6 hPa 0,0 l/m 0 min 2 min 0 W/m 6,4 km/h (2 Bft) 91,49 %
05.11.2023 03:58 9,4 C 8,9 C 5,6 C 97 % 971,7 hPa 0,0 l/m 0 min 2 min 0 W/m 6,4 km/h (2 Bft) 93,48 %
05.11.2023 04:00 9,4 C 8,9 C 5,6 C 97 % 971,6 hPa 0,0 l/m 0 min 0 min 0 W/m 6,4 km/h (2 Bft) 91,49 %
05.11.2023 04:02 9,4 C 8,9 C 5,6 C 97 % 971,6 hPa 0,0 l/m 0 min 2 min 0 W/m 6,4 km/h (2 Bft) 93,62 %
05.11.2023 04:04 9,4 C 8,9 C 5,6 C 97 % 971,7 hPa 0,0 l/m 0 min 0 min 0 W/m 12,9 km/h (3 Bft) 92,31 %
05.11.2023 04:06 9,4 C 8,9 C 5,6 C 97 % 971,7 hPa 0,0 l/m 0 min 0 min 0 W/m 12,9 km/h (3 Bft) 95,74 %
05.11.2023 04:08 9,4 C 8,9 C 5,6 C 97 % 971,6 hPa 0,0 l/m 0 min 0 min 0 W/m 6,4 km/h (2 Bft) 95,83 %
05.11.2023 04:10 9,4 C 8,9 C 5,6 C 97 % 971,6 hPa 0,0 l/m 0 min 0 min 0 W/m 12,9 km/h (3 Bft) 95,74 %
05.11.2023 04:12 9,4 C 8,9 C 5,6 C 97 % 971,6 hPa 0,0 l/m 0 min 0 min 0 W/m 12,9 km/h (3 Bft) 93,62 %
05.11.2023 04:14 9,4 C 8,9 C 5,6 C 97 % 971,5 hPa 0,0 l/m 0 min 0 min 0 W/m 6,4 km/h (2 Bft) 97,87 %
05.11.2023 04:16 9,4 C 8,9 C 5,6 C 97 % 971,5 hPa 0,0 l/m 0 min 0 min 0 W/m 6,4 km/h (2 Bft) 97,87 %
05.11.2023 04:18 9,4 C 8,9 C 5,6 C 97 % 971,5 hPa 0,0 l/m 0 min 0 min 0 W/m 6,4 km/h (2 Bft) 97,87 %
05.11.2023 04:20 9,4 C 8,9 C 5,6 C 97 % 971,5 hPa 0,0 l/m 0 min 0 min 0 W/m 12,9 km/h (3 Bft) 95,74 %
05.11.2023 04:22 9,4 C 8,9 C 5,6 C 97 % 971,5 hPa 0,0 l/m 0 min 0 min 0 W/m 6,4 km/h (2 Bft) 97,87 %
05.11.2023 04:24 9,4 C 8,9 C 5,6 C 97 % 971,5 hPa 0,0 l/m 0 min 0 min 0 W/m 6,4 km/h (2 Bft) 97,87 %
05.11.2023 04:26 9,4 C 8,9 C 5,6 C 97 % 971,5 hPa 0,0 l/m 0 min 2 min 0 W/m 6,4 km/h (2 Bft) 95,65 %
05.11.2023 04:28 9,4 C 8,9 C 5,6 C 97 % 971,6 hPa 0,0 l/m 0 min 2 min 0 W/m 9,7 km/h (2 Bft) 97,87 %
05.11.2023 04:30 9,4 C 8,9 C 5,6 C 97 % 971,6 hPa 0,0 l/m 0 min 2 min 0 W/m 6,4 km/h (2 Bft) 97,87 %
05.11.2023 04:32 9,4 C 8,9 C 5,6 C 97 % 971,6 hPa 0,0 l/m 0 min 2 min 0 W/m 3,2 km/h (1 Bft) 93,62 %
05.11.2023 04:34 9,4 C 8,9 C 5,6 C 97 % 971,6 hPa 0,0 l/m 0 min 2 min 0 W/m 12,9 km/h (3 Bft) 97,87 %
05.11.2023 04:36 9,4 C 8,9 C 5,6 C 97 % 971,6 hPa 0,0 l/m 0 min 0 min 0 W/m 6,4 km/h (2 Bft) 100,00 %
05.11.2023 04:38 9,5 C 8,9 C 5,6 C 97 % 971,6 hPa 0,0 l/m 0 min 0 min 0 W/m 9,7 km/h (2 Bft) 97,87 %
05.11.2023 04:40 9,5 C 8,9 C 5,6 C 97 % 971,6 hPa 0,0 l/m 0 min 0 min 0 W/m 16,1 km/h (3 Bft) 100,00 %
05.11.2023 04:42 9,5 C 8,9 C 5,6 C 97 % 971,6 hPa 0,0 l/m 0 min 0 min 0 W/m 3,2 km/h (1 Bft) 100,00 %
05.11.2023 04:44 9,5 C 8,9 C 5,6 C 97 % 971,6 hPa 0,0 l/m 0 min 0 min 0 W/m 12,9 km/h (3 Bft) 97,87 %
05.11.2023 04:46 9,5 C 8,9 C 5,6 C 97 % 971,6 hPa 0,2 l/m 0 min 0 min 0 W/m 6,4 km/h (2 Bft) 100,00 %
05.11.2023 04:48 9,5 C 8,9 C 5,6 C 97 % 971,6 hPa 0,0 l/m 0 min 0 min 0 W/m 12,9 km/h (3 Bft) 95,74 %
05.11.2023 04:50 9,6 C 8,9 C 5,6 C 97 % 971,6 hPa 0,0 l/m 0 min 0 min 0 W/m 12,9 km/h (3 Bft) 97,87 %
05.11.2023 04:52 9,6 C 8,9 C 5,6 C 97 % 971,5 hPa 0,0 l/m 0 min 0 min 0 W/m 6,4 km/h (2 Bft) 100,00 %
05.11.2023 04:54 9,6 C 8,9 C 5,6 C 97 % 971,6 hPa 0,0 l/m 0 min 0 min 0 W/m 6,4 km/h (2 Bft) 100,00 %
05.11.2023 04:56 9,6 C 8,9 C 5,6 C 97 % 971,5 hPa 0,0 l/m 0 min 0 min 0 W/m 9,7 km/h (2 Bft) 97,87 %
05.11.2023 04:58 9,6 C 8,9 C 5,6 C 97 % 971,6 hPa 0,0 l/m 0 min 0 min 0 W/m 12,9 km/h (3 Bft) 100,00 %
05.11.2023 05:00 9,6 C 8,9 C 5,6 C 97 % 971,6 hPa 0,0 l/m 0 min 0 min 0 W/m 12,9 km/h (3 Bft) 100,00 %
05.11.2023 05:02 9,6 C 8,9 C 5,6 C 97 % 971,7 hPa 0,0 l/m 0 min 0 min 0 W/m 3,2 km/h (1 Bft) 97,87 %
05.11.2023 05:04 9,6 C 8,9 C 5,6 C 97 % 971,7 hPa 0,0 l/m 0 min 0 min 0 W/m 3,2 km/h (1 Bft) 100,00 %
05.11.2023 05:08 9,6 C 8,9 C 5,6 C 96 % 971,7 hPa 0,0 l/m 0 min 0 min 0 W/m 6,4 km/h (2 Bft) 99,00 %
05.11.2023 05:09 9,6 C 8,9 C 5,6 C 97 % 971,7 hPa 0,0 l/m 0 min 0 min 0 W/m 3,2 km/h (1 Bft) 100,00 %
05.11.2023 05:12 9,6 C 8,9 C 5,6 C 96 % 971,7 hPa 0,0 l/m 0 min 0 min 0 W/m 6,4 km/h (2 Bft) 100,00 %
05.11.2023 05:14 9,6 C 8,9 C 5,6 C 96 % 971,7 hPa 0,0 l/m 0 min 0 min 0 W/m 6,4 km/h (2 Bft) 97,87 %
05.11.2023 05:16 9,6 C 8,9 C 5,6 C 96 % 971,7 hPa 0,0 l/m 0 min 0 min 0 W/m 3,2 km/h (1 Bft) 85,11 %
05.11.2023 05:18 9,6 C 8,9 C 5,6 C 96 % 971,6 hPa 0,0 l/m 0 min 0 min 0 W/m 3,2 km/h (1 Bft) 65,91 %
05.11.2023 05:20 9,6 C 8,9 C 5,6 C 96 % 971,6 hPa 0,0 l/m 0 min 0 min 0 W/m 6,4 km/h (2 Bft) 97,83 %
05.11.2023 05:22 9,6 C 8,9 C 5,6 C 96 % 971,6 hPa 0,0 l/m 0 min 0 min 0 W/m 3,2 km/h (1 Bft) 95,74 %
05.11.2023 05:24 9,6 C 8,9 C 5,6 C 96 % 971,6 hPa 0,0 l/m 0 min 0 min 0 W/m 3,2 km/h (1 Bft) 97,87 %
05.11.2023 05:26 9,6 C 8,9 C 5,6 C 96 % 971,6 hPa 0,0 l/m 0 min 0 min 0 W/m 6,4 km/h (2 Bft) 95,74 %
05.11.2023 05:28 9,6 C 8,9 C 5,6 C 96 % 971,6 hPa 0,0 l/m 0 min 0 min 0 W/m 6,4 km/h (2 Bft) 100,00 %
05.11.2023 05:30 9,6 C 8,9 C 5,6 C 96 % 971,7 hPa 0,0 l/m 0 min 0 min 0 W/m 6,4 km/h (2 Bft) 100,00 %
05.11.2023 05:32 9,6 C 8,9 C 5,6 C 96 % 971,6 hPa 0,0 l/m 0 min 0 min 0 W/m 6,4 km/h (2 Bft) 95,74 %
05.11.2023 05:34 9,6 C 8,9 C 5,6 C 96 % 971,7 hPa 0,0 l/m 0 min 0 min 0 W/m 6,4 km/h (2 Bft) 95,74 %
05.11.2023 05:36 9,6 C 8,9 C 5,6 C 96 % 971,7 hPa 0,0 l/m 0 min 0 min 0 W/m 12,9 km/h (3 Bft) 97,87 %
05.11.2023 05:38 9,6 C 8,9 C 5,6 C 96 % 971,7 hPa 0,0 l/m 0 min 0 min 0 W/m 3,2 km/h (1 Bft) 97,83 %
05.11.2023 05:40 9,6 C 8,9 C 5,6 C 96 % 971,7 hPa 0,0 l/m 0 min 0 min 0 W/m 6,4 km/h (2 Bft) 95,74 %
05.11.2023 05:42 9,6 C 8,9 C 5,6 C 96 % 971,7 hPa 0,0 l/m 0 min 0 min 0 W/m 6,4 km/h (2 Bft) 95,74 %
05.11.2023 05:44 9,6 C 8,9 C 5,6 C 96 % 971,7 hPa 0,0 l/m 0 min 0 min 0 W/m 3,2 km/h (1 Bft) 97,87 %
05.11.2023 05:46 9,6 C 8,9 C 5,6 C 96 % 971,7 hPa 0,0 l/m 0 min 0 min 0 W/m 3,2 km/h (1 Bft) 97,87 %
05.11.2023 05:48 9,6 C 8,9 C 5,6 C 96 % 971,6 hPa 0,0 l/m 0 min 0 min 0 W/m 3,2 km/h (1 Bft) 95,74 %
05.11.2023 05:50 9,7 C 8,9 C 5,6 C 96 % 971,7 hPa 0,0 l/m 0 min 0 min 0 W/m 6,4 km/h (2 Bft) 97,87 %
05.11.2023 05:52 9,7 C 8,9 C 5,6 C 96 % 971,7 hPa 0,0 l/m 0 min 0 min 0 W/m 3,2 km/h (1 Bft) 97,83 %
05.11.2023 05:54 9,7 C 8,9 C 5,6 C 96 % 971,7 hPa 0,0 l/m 0 min 0 min 0 W/m 3,2 km/h (1 Bft) 97,50 %
05.11.2023 05:56 9,7 C 8,9 C 5,6 C 96 % 971,7 hPa 0,0 l/m 0 min 0 min 0 W/m 3,2 km/h (1 Bft) 97,83 %
05.11.2023 05:58 9,6 C 8,9 C 5,6 C 96 % 971,7 hPa 0,0 l/m 0 min 0 min 0 W/m 6,4 km/h (2 Bft) 97,92 %
05.11.2023 06:00 9,6 C 8,9 C 5,6 C 96 % 971,7 hPa 0,0 l/m 0 min 0 min 0 W/m 3,2 km/h (1 Bft) 93,62 %
05.11.2023 06:02 9,7 C 8,9 C 5,6 C 96 % 971,7 hPa 0,0 l/m 0 min 0 min 0 W/m 12,9 km/h (3 Bft) 97,87 %
05.11.2023 06:04 9,6 C 8,9 C 5,6 C 96 % 971,7 hPa 0,0 l/m 0 min 0 min 0 W/m 6,4 km/h (2 Bft) 100,00 %
05.11.2023 06:08 9,7 C 8,9 C 5,6 C 96 % 971,8 hPa 0,0 l/m 0 min 4 min 0 W/m 6,4 km/h (2 Bft) 100,00 %
05.11.2023 06:10 9,7 C 8,9 C 5,6 C 96 % 971,7 hPa 0,0 l/m 0 min 0 min 0 W/m 6,4 km/h (2 Bft) 97,87 %
05.11.2023 06:12 9,7 C 8,9 C 5,6 C 96 % 971,8 hPa 0,0 l/m 0 min 0 min 0 W/m 6,4 km/h (2 Bft) 100,00 %
05.11.2023 06:16 9,7 C 8,9 C 5,6 C 96 % 971,8 hPa 0,0 l/m 0 min 4 min 0 W/m 12,9 km/h (3 Bft) 96,81 %
05.11.2023 06:18 9,7 C 8,9 C 5,6 C 96 % 971,8 hPa 0,0 l/m 0 min 2 min 0 W/m 3,2 km/h (1 Bft) 93,62 %
05.11.2023 06:20 9,7 C 8,9 C 5,6 C 96 % 971,8 hPa 0,0 l/m 0 min 2 min 0 W/m 6,4 km/h (2 Bft) 95,74 %
05.11.2023 06:22 9,7 C 8,9 C 5,6 C 96 % 971,8 hPa 0,0 l/m 0 min 2 min 0 W/m 3,2 km/h (1 Bft) 95,74 %
05.11.2023 06:24 9,7 C 8,9 C 5,6 C 96 % 971,8 hPa 0,0 l/m 0 min 2 min 0 W/m 3,2 km/h (1 Bft) 95,74 %
05.11.2023 06:26 9,7 C 8,9 C 5,6 C 96 % 971,8 hPa 0,0 l/m 0 min 0 min 0 W/m 6,4 km/h (2 Bft) 95,74 %
05.11.2023 06:28 9,7 C 8,9 C 5,6 C 96 % 971,8 hPa 0,0 l/m 0 min 0 min 0 W/m 3,2 km/h (1 Bft) 95,65 %
05.11.2023 06:30 9,7 C 8,9 C 5,6 C 96 % 971,8 hPa 0,0 l/m 0 min 2 min 0 W/m 3,2 km/h (1 Bft) 93,62 %
05.11.2023 06:32 9,7 C 8,9 C 5,6 C 96 % 971,9 hPa 0,2 l/m 0 min 2 min 0 W/m 3,2 km/h (1 Bft) 93,62 %
05.11.2023 06:34 9,7 C 8,9 C 5,6 C 96 % 971,9 hPa 0,0 l/m 0 min 0 min 0 W/m 3,2 km/h (1 Bft) 95,74 %
05.11.2023 06:36 9,7 C 8,9 C 5,6 C 96 % 971,8 hPa 0,0 l/m 0 min 2 min 0 W/m 3,2 km/h (1 Bft) 95,74 %
05.11.2023 06:38 9,7 C 8,9 C 5,6 C 96 % 971,9 hPa 0,0 l/m 0 min 2 min 0 W/m 0,0 km/h (0 Bft) 95,74 %
05.11.2023 06:40 9,7 C 8,9 C 5,6 C 96 % 971,9 hPa 0,0 l/m 0 min 2 min 0 W/m 0,0 km/h (0 Bft) 91,49 %
05.11.2023 06:42 9,7 C 8,9 C 5,6 C 96 % 971,9 hPa 0,0 l/m 0 min 2 min 0 W/m 3,2 km/h (1 Bft) 95,65 %
05.11.2023 06:44 9,7 C 8,9 C 5,6 C 96 % 971,9 hPa 0,0 l/m 0 min 0 min 0 W/m 3,2 km/h (1 Bft) 95,74 %
05.11.2023 06:46 9,7 C 8,9 C 5,6 C 96 % 971,9 hPa 0,0 l/m 0 min 0 min 0 W/m 3,2 km/h (1 Bft) 91,49 %
05.11.2023 06:48 9,7 C 8,9 C 5,6 C 96 % 972,0 hPa 0,0 l/m 0 min 0 min 0 W/m 6,4 km/h (2 Bft) 93,62 %
05.11.2023 06:50 9,7 C 8,9 C 5,6 C 96 % 971,9 hPa 0,0 l/m 0 min 0 min 0 W/m 3,2 km/h (1 Bft) 95,74 %
05.11.2023 06:52 9,7 C 8,9 C 5,6 C 96 % 972,0 hPa 0,0 l/m 0 min 0 min 0 W/m 0,0 km/h (0 Bft) 95,74 %
05.11.2023 06:54 9,7 C 8,9 C 5,6 C 96 % 972,0 hPa 0,0 l/m 0 min 0 min 0 W/m 0,0 km/h (0 Bft) 97,87 %
05.11.2023 06:56 9,7 C 8,9 C 5,6 C 96 % 972,0 hPa 0,0 l/m 0 min 0 min 0 W/m 0,0 km/h (0 Bft) 58,00 %
05.11.2023 06:58 9,7 C 8,9 C 5,6 C 96 % 972,0 hPa 0,0 l/m 0 min 0 min 0 W/m 3,2 km/h (1 Bft) 97,87 %
05.11.2023 07:00 9,7 C 8,9 C 5,6 C 96 % 972,0 hPa 0,0 l/m 0 min 0 min 0 W/m 0,0 km/h (0 Bft) 97,87 %
05.11.2023 07:02 9,7 C 8,9 C 5,6 C 96 % 972,0 hPa 0,0 l/m 0 min 0 min 0 W/m 0,0 km/h (0 Bft) 97,87 %
05.11.2023 07:04 9,7 C 8,9 C 5,6 C 96 % 972,0 hPa 0,0 l/m 0 min 0 min 0 W/m 6,4 km/h (2 Bft) 95,56 %
05.11.2023 07:10 9,7 C 8,9 C 5,6 C 96 % 972,1 hPa 0,0 l/m 0 min 0 min 0 W/m 3,2 km/h (1 Bft) 98,57 %
05.11.2023 07:12 9,7 C 8,9 C 5,6 C 96 % 972,1 hPa 0,0 l/m 0 min 0 min 0 W/m 3,2 km/h (1 Bft) 97,87 %
05.11.2023 07:14 9,7 C 8,9 C 5,6 C 96 % 972,1 hPa 0,0 l/m 0 min 0 min 0 W/m 3,2 km/h (1 Bft) 97,87 %
05.11.2023 07:16 9,7 C 8,9 C 5,6 C 96 % 972,2 hPa 0,0 l/m 0 min 0 min 0 W/m 9,7 km/h (2 Bft) 97,87 %
05.11.2023 07:18 9,7 C 8,9 C 5,6 C 96 % 972,1 hPa 0,0 l/m 0 min 0 min 0 W/m 6,4 km/h (2 Bft) 97,87 %
05.11.2023 07:20 9,7 C 8,9 C 5,6 C 96 % 972,2 hPa 0,0 l/m 0 min 0 min 0 W/m 12,9 km/h (3 Bft) 97,87 %
05.11.2023 07:22 9,7 C 8,9 C 5,6 C 96 % 972,2 hPa 0,0 l/m 0 min 0 min 0 W/m 12,9 km/h (3 Bft) 100,00 %
05.11.2023 07:24 9,7 C 8,9 C 5,6 C 96 % 972,2 hPa 0,0 l/m 0 min 0 min 0 W/m 6,4 km/h (2 Bft) 95,74 %
05.11.2023 07:26 9,7 C 8,9 C 5,6 C 96 % 972,2 hPa 0,0 l/m 0 min 0 min 0 W/m 6,4 km/h (2 Bft) 95,74 %
05.11.2023 07:28 9,7 C 8,9 C 5,6 C 96 % 972,2 hPa 0,0 l/m 0 min 0 min 0 W/m 6,4 km/h (2 Bft) 95,74 %
05.11.2023 07:30 9,7 C 8,9 C 5,6 C 96 % 972,2 hPa 0,0 l/m 0 min 0 min 0 W/m 6,4 km/h (2 Bft) 97,87 %
05.11.2023 07:32 9,7 C 8,9 C 5,6 C 96 % 972,2 hPa 0,0 l/m 0 min 0 min 0 W/m 3,2 km/h (1 Bft) 97,87 %
05.11.2023 07:34 9,7 C 8,9 C 5,6 C 96 % 972,3 hPa 0,0 l/m 0 min 0 min 0 W/m 12,9 km/h (3 Bft) 97,87 %
05.11.2023 07:36 9,7 C 8,9 C 5,6 C 96 % 972,3 hPa 0,0 l/m 0 min 0 min 0 W/m 3,2 km/h (1 Bft) 95,74 %
05.11.2023 07:38 9,7 C 8,9 C 5,6 C 96 % 972,4 hPa 0,0 l/m 0 min 0 min 0 W/m 3,2 km/h (1 Bft) 97,83 %
05.11.2023 07:40 9,7 C 8,9 C 5,6 C 96 % 972,4 hPa 0,0 l/m 0 min 0 min 0 W/m 3,2 km/h (1 Bft) 97,87 %
05.11.2023 07:42 9,7 C 8,9 C 5,6 C 96 % 972,4 hPa 0,0 l/m 0 min 0 min 0 W/m 6,4 km/h (2 Bft) 97,87 %
05.11.2023 07:44 9,7 C 8,9 C 5,6 C 96 % 972,4 hPa 0,0 l/m 0 min 0 min 1 W/m 6,4 km/h (2 Bft) 97,87 %
05.11.2023 07:46 9,7 C 8,9 C 5,6 C 96 % 972,4 hPa 0,0 l/m 0 min 0 min 5 W/m 6,4 km/h (2 Bft) 97,87 %
05.11.2023 07:48 9,7 C 8,9 C 5,6 C 96 % 972,5 hPa 0,0 l/m 0 min 0 min 3 W/m 0,0 km/h (0 Bft) 97,87 %
05.11.2023 07:50 9,7 C 8,9 C 5,6 C 96 % 972,5 hPa 0,0 l/m 0 min 0 min 0 W/m 3,2 km/h (1 Bft) 93,62 %
05.11.2023 07:52 9,7 C 8,9 C 5,6 C 96 % 972,6 hPa 0,0 l/m 0 min 0 min 2 W/m 3,2 km/h (1 Bft) 95,74 %
05.11.2023 07:54 9,7 C 8,9 C 5,6 C 96 % 972,6 hPa 0,0 l/m 0 min 0 min 5 W/m 3,2 km/h (1 Bft) 97,83 %
05.11.2023 07:56 9,6 C 8,9 C 5,6 C 96 % 972,6 hPa 0,0 l/m 0 min 0 min 5 W/m 3,2 km/h (1 Bft) 100,00 %
05.11.2023 07:58 9,6 C 8,9 C 5,6 C 96 % 972,7 hPa 0,0 l/m 0 min 0 min 5 W/m 3,2 km/h (1 Bft) 100,00 %
05.11.2023 08:00 9,6 C 8,9 C 5,6 C 96 % 972,7 hPa 0,0 l/m 0 min 0 min 5 W/m 6,4 km/h (2 Bft) 100,00 %
05.11.2023 08:02 9,6 C 8,9 C 5,6 C 96 % 972,7 hPa 0,0 l/m 0 min 0 min 5 W/m 3,2 km/h (1 Bft) 97,87 %
05.11.2023 08:04 9,6 C 8,9 C 5,6 C 96 % 972,7 hPa 0,0 l/m 0 min 0 min 7 W/m 3,2 km/h (1 Bft) 100,00 %
05.11.2023 08:06 9,6 C 8,9 C 5,6 C 96 % 972,8 hPa 0,0 l/m 0 min 0 min 7 W/m 9,7 km/h (2 Bft) 97,83 %
05.11.2023 08:08 9,6 C 8,9 C 5,6 C 96 % 972,8 hPa 0,0 l/m 0 min 0 min 8 W/m 6,4 km/h (2 Bft) 97,87 %
05.11.2023 08:10 9,6 C 8,9 C 5,6 C 96 % 972,9 hPa 0,0 l/m 0 min 0 min 10 W/m 6,4 km/h (2 Bft) 100,00 %
05.11.2023 08:12 9,6 C 8,9 C 5,6 C 96 % 972,9 hPa 0,0 l/m 0 min 0 min 12 W/m 3,2 km/h (1 Bft) 97,87 %
05.11.2023 08:14 9,6 C 8,9 C 5,6 C 96 % 972,9 hPa 0,0 l/m 0 min 0 min 12 W/m 6,4 km/h (2 Bft) 100,00 %
05.11.2023 08:16 9,6 C 8,9 C 5,6 C 96 % 972,9 hPa 0,0 l/m 0 min 0 min 13 W/m 9,7 km/h (2 Bft) 100,00 %
05.11.2023 08:18 9,6 C 8,9 C 5,6 C 96 % 972,9 hPa 0,0 l/m 0 min 0 min 17 W/m 0,0 km/h (0 Bft) 97,87 %
05.11.2023 08:20 9,6 C 8,9 C 5,6 C 96 % 972,9 hPa 0,0 l/m 0 min 0 min 19 W/m 6,4 km/h (2 Bft) 100,00 %
05.11.2023 08:22 9,6 C 8,9 C 5,6 C 96 % 973,0 hPa 0,0 l/m 0 min 0 min 21 W/m 16,1 km/h (3 Bft) 100,00 %
05.11.2023 08:24 9,6 C 8,9 C 5,6 C 96 % 973,0 hPa 0,0 l/m 0 min 0 min 19 W/m 9,7 km/h (2 Bft) 97,83 %
05.11.2023 08:26 9,7 C 8,9 C 5,6 C 96 % 973,1 hPa 0,0 l/m 0 min 0 min 20 W/m 12,9 km/h (3 Bft) 100,00 %
05.11.2023 08:28 9,7 C 9,4 C 5,6 C 96 % 973,1 hPa 0,0 l/m 0 min 0 min 22 W/m 6,4 km/h (2 Bft) 97,87 %
05.11.2023 08:30 9,7 C 9,4 C 5,6 C 97 % 973,1 hPa 0,0 l/m 0 min 0 min 24 W/m 3,2 km/h (1 Bft) 100,00 %
05.11.2023 08:32 9,7 C 9,4 C 5,6 C 97 % 973,1 hPa 0,0 l/m 0 min 0 min 27 W/m 12,9 km/h (3 Bft) 100,00 %
05.11.2023 08:34 9,7 C 9,4 C 5,6 C 97 % 973,2 hPa 0,0 l/m 0 min 0 min 30 W/m 9,7 km/h (2 Bft) 95,74 %
05.11.2023 08:36 9,7 C 9,4 C 5,6 C 97 % 973,2 hPa 0,0 l/m 0 min 0 min 28 W/m 12,9 km/h (3 Bft) 97,87 %
05.11.2023 08:38 9,7 C 9,4 C 6,1 C 97 % 973,2 hPa 0,0 l/m 0 min 0 min 23 W/m 12,9 km/h (3 Bft) 95,65 %
05.11.2023 08:40 9,8 C 9,4 C 6,1 C 97 % 973,3 hPa 0,0 l/m 0 min 0 min 24 W/m 9,7 km/h (2 Bft) 97,87 %
05.11.2023 08:42 9,8 C 9,4 C 6,1 C 97 % 973,3 hPa 0,0 l/m 0 min 0 min 28 W/m 12,9 km/h (3 Bft) 97,87 %
05.11.2023 08:44 9,8 C 9,4 C 6,1 C 97 % 973,4 hPa 0,0 l/m 0 min 0 min 25 W/m 22,5 km/h (4 Bft) 97,87 %
05.11.2023 08:46 9,8 C 9,4 C 6,1 C 97 % 973,4 hPa 0,0 l/m 0 min 0 min 27 W/m 9,7 km/h (2 Bft) 97,87 %
05.11.2023 08:48 9,8 C 9,4 C 6,1 C 97 % 973,5 hPa 0,0 l/m 0 min 0 min 30 W/m 9,7 km/h (2 Bft) 97,87 %
05.11.2023 08:50 9,8 C 9,4 C 6,1 C 97 % 973,5 hPa 0,0 l/m 0 min 0 min 31 W/m 12,9 km/h (3 Bft) 97,14 %
05.11.2023 08:52 9,9 C 9,4 C 6,1 C 97 % 973,6 hPa 0,0 l/m 0 min 0 min 35 W/m 12,9 km/h (3 Bft) 97,87 %
05.11.2023 08:54 9,9 C 9,4 C 6,1 C 97 % 973,6 hPa 0,0 l/m 0 min 0 min 39 W/m 19,3 km/h (3 Bft) 97,96 %
05.11.2023 08:56 9,9 C 9,4 C 6,1 C 97 % 973,6 hPa 0,0 l/m 0 min 0 min 33 W/m 16,1 km/h (3 Bft) 97,87 %
05.11.2023 08:58 9,9 C 9,4 C 6,1 C 97 % 973,7 hPa 0,0 l/m 0 min 2 min 32 W/m 9,7 km/h (2 Bft) 97,87 %
05.11.2023 09:00 9,9 C 9,4 C 6,1 C 97 % 973,7 hPa 0,0 l/m 0 min 0 min 38 W/m 3,2 km/h (1 Bft) 97,87 %
05.11.2023 09:02 10,0 C 9,4 C 6,1 C 97 % 973,7 hPa 0,0 l/m 0 min 0 min 44 W/m 9,7 km/h (2 Bft) 97,87 %
05.11.2023 09:04 10,0 C 9,4 C 6,1 C 97 % 973,7 hPa 0,0 l/m 0 min 0 min 51 W/m 9,7 km/h (2 Bft) 95,74 %
05.11.2023 09:06 10,1 C 9,4 C 6,1 C 97 % 973,7 hPa 0,0 l/m 0 min 0 min 56 W/m 12,9 km/h (3 Bft) 97,92 %
05.11.2023 09:08 10,1 C 9,4 C 6,1 C 97 % 973,8 hPa 0,0 l/m 0 min 0 min 59 W/m 12,9 km/h (3 Bft) 95,74 %
05.11.2023 09:10 10,1 C 10,0 C 6,1 C 97 % 973,8 hPa 0,0 l/m 0 min 0 min 58 W/m 12,9 km/h (3 Bft) 97,87 %
05.11.2023 09:12 10,1 C 10,0 C 6,1 C 97 % 973,8 hPa 0,0 l/m 0 min 0 min 47 W/m 12,9 km/h (3 Bft) 93,48 %
05.11.2023 09:14 10,1 C 10,0 C 6,1 C 97 % 973,9 hPa 0,0 l/m 0 min 0 min 43 W/m 19,3 km/h (3 Bft) 95,74 %
05.11.2023 09:16 10,1 C 9,4 C 6,1 C 97 % 973,9 hPa 0,0 l/m 0 min 0 min 36 W/m 16,1 km/h (3 Bft) 97,87 %
05.11.2023 09:18 10,1 C 9,4 C 6,1 C 97 % 974,0 hPa 0,0 l/m 0 min 0 min 43 W/m 12,9 km/h (3 Bft) 97,87 %
05.11.2023 09:20 10,1 C 9,4 C 6,1 C 97 % 974,0 hPa 0,0 l/m 0 min 0 min 47 W/m 19,3 km/h (3 Bft) 97,87 %
05.11.2023 09:22 10,1 C 10,0 C 6,1 C 97 % 974,1 hPa 0,0 l/m 0 min 0 min 42 W/m 16,1 km/h (3 Bft) 91,49 %
05.11.2023 09:24 10,1 C 10,0 C 6,1 C 97 % 974,1 hPa 0,0 l/m 0 min 0 min 39 W/m 16,1 km/h (3 Bft) 95,74 %
05.11.2023 09:26 10,2 C 10,0 C 6,1 C 97 % 974,2 hPa 0,0 l/m 0 min 0 min 39 W/m 9,7 km/h (2 Bft) 95,74 %
05.11.2023 09:28 10,2 C 10,0 C 6,1 C 97 % 974,2 hPa 0,0 l/m 0 min 0 min 32 W/m 16,1 km/h (3 Bft) 95,65 %
05.11.2023 09:30 10,2 C 10,0 C 6,1 C 97 % 974,3 hPa 0,0 l/m 0 min 0 min 26 W/m 12,9 km/h (3 Bft) 93,62 %
05.11.2023 09:32 10,2 C 10,0 C 6,1 C 97 % 974,3 hPa 0,0 l/m 0 min 0 min 25 W/m 19,3 km/h (3 Bft) 95,74 %
05.11.2023 09:34 10,2 C 10,0 C 6,1 C 97 % 974,3 hPa 0,0 l/m 0 min 0 min 26 W/m 22,5 km/h (4 Bft) 95,74 %
05.11.2023 09:36 10,2 C 10,0 C 6,1 C 97 % 974,4 hPa 0,0 l/m 0 min 0 min 32 W/m 16,1 km/h (3 Bft) 95,74 %
05.11.2023 09:38 10,2 C 9,4 C 6,1 C 97 % 974,4 hPa 0,0 l/m 0 min 0 min 42 W/m 19,3 km/h (3 Bft) 95,74 %
05.11.2023 09:40 10,2 C 9,4 C 6,1 C 97 % 974,4 hPa 0,0 l/m 0 min 0 min 52 W/m 12,9 km/h (3 Bft) 93,62 %
05.11.2023 09:42 10,2 C 10,0 C 6,1 C 97 % 974,4 hPa 0,0 l/m 0 min 0 min 62 W/m 12,9 km/h (3 Bft) 95,65 %
05.11.2023 09:44 10,3 C 10,0 C 6,7 C 97 % 974,4 hPa 0,0 l/m 0 min 2 min 60 W/m 9,7 km/h (2 Bft) 95,74 %
05.11.2023 09:46 10,3 C 10,0 C 6,7 C 97 % 974,4 hPa 0,0 l/m 0 min 0 min 63 W/m 16,1 km/h (3 Bft) 95,74 %
05.11.2023 09:48 10,3 C 10,0 C 6,7 C 97 % 974,5 hPa 0,0 l/m 0 min 0 min 58 W/m 22,5 km/h (4 Bft) 97,87 %
05.11.2023 09:50 10,3 C 10,0 C 6,7 C 97 % 974,5 hPa 0,0 l/m 0 min 0 min 66 W/m 22,5 km/h (4 Bft) 97,87 %
05.11.2023 09:52 10,3 C 10,0 C 6,7 C 97 % 974,5 hPa 0,0 l/m 0 min 0 min 85 W/m 12,9 km/h (3 Bft) 98,00 %
05.11.2023 09:54 10,3 C 10,0 C 6,7 C 97 % 974,5 hPa 0,0 l/m 0 min 0 min 90 W/m 6,4 km/h (2 Bft) 97,83 %
05.11.2023 09:56 10,4 C 10,0 C 6,7 C 97 % 974,6 hPa 0,0 l/m 0 min 0 min 82 W/m 19,3 km/h (3 Bft) 95,74 %
05.11.2023 09:58 10,4 C 10,0 C 6,7 C 97 % 974,7 hPa 0,0 l/m 0 min 0 min 96 W/m 12,9 km/h (3 Bft) 97,83 %
05.11.2023 10:00 10,4 C 10,6 C 6,7 C 97 % 974,7 hPa 0,0 l/m 0 min 0 min 112 W/m 16,1 km/h (3 Bft) 97,87 %
05.11.2023 10:02 10,5 C 10,6 C 6,7 C 97 % 974,6 hPa 0,0 l/m 0 min 0 min 113 W/m 16,1 km/h (3 Bft) 97,87 %
05.11.2023 10:04 10,6 C 10,6 C 6,7 C 97 % 974,7 hPa 0,0 l/m 0 min 0 min 102 W/m 19,3 km/h (3 Bft) 95,92 %
05.11.2023 10:06 10,6 C 10,6 C 6,7 C 97 % 974,8 hPa 0,0 l/m 0 min 0 min 93 W/m 19,3 km/h (3 Bft) 95,74 %
05.11.2023 10:08 10,6 C 10,6 C 6,7 C 97 % 974,8 hPa 0,0 l/m 0 min 0 min 80 W/m 16,1 km/h (3 Bft) 97,37 %
05.11.2023 10:10 10,6 C 10,6 C 6,7 C 97 % 974,9 hPa 0,0 l/m 0 min 0 min 77 W/m 29,0 km/h (5 Bft) 100,00 %
05.11.2023 10:12 10,6 C 10,6 C 6,7 C 97 % 974,9 hPa 0,0 l/m 0 min 0 min 90 W/m 25,7 km/h (4 Bft) 97,87 %
05.11.2023 10:14 10,7 C 11,1 C 6,7 C 97 % 974,9 hPa 0,0 l/m 0 min 0 min 118 W/m 22,5 km/h (4 Bft) 100,00 %
05.11.2023 10:16 10,7 C 11,1 C 6,7 C 97 % 975,0 hPa 0,0 l/m 0 min 0 min 115 W/m 25,7 km/h (4 Bft) 100,00 %
05.11.2023 10:18 10,8 C 11,1 C 6,7 C 97 % 975,0 hPa 0,0 l/m 0 min 0 min 97 W/m 19,3 km/h (3 Bft) 97,87 %
05.11.2023 10:20 10,8 C 11,1 C 6,7 C 97 % 975,1 hPa 0,0 l/m 0 min 0 min 79 W/m 19,3 km/h (3 Bft) 100,00 %
05.11.2023 10:22 10,8 C 11,1 C 6,7 C 97 % 975,1 hPa 0,0 l/m 0 min 0 min 85 W/m 25,7 km/h (4 Bft) 100,00 %
05.11.2023 10:24 10,8 C 11,1 C 6,7 C 97 % 975,2 hPa 0,0 l/m 0 min 0 min 70 W/m 38,6 km/h (5 Bft) 100,00 %
05.11.2023 10:26 10,9 C 11,1 C 6,7 C 97 % 975,2 hPa 0,0 l/m 0 min 0 min 70 W/m 19,3 km/h (3 Bft) 100,00 %
05.11.2023 10:28 10,9 C 11,1 C 6,7 C 96 % 975,3 hPa 0,0 l/m 0 min 0 min 91 W/m 12,9 km/h (3 Bft) 97,83 %
05.11.2023 10:30 10,9 C 11,1 C 6,7 C 96 % 975,2 hPa 0,0 l/m 0 min 0 min 96 W/m 16,1 km/h (3 Bft) 100,00 %
05.11.2023 10:32 10,9 C 11,1 C 6,7 C 96 % 975,3 hPa 0,0 l/m 0 min 0 min 84 W/m 19,3 km/h (3 Bft) 97,87 %
05.11.2023 10:34 11,0 C 10,6 C 6,7 C 96 % 975,3 hPa 0,0 l/m 0 min 0 min 52 W/m 22,5 km/h (4 Bft) 100,00 %
05.11.2023 10:36 11,0 C 10,6 C 6,7 C 96 % 975,4 hPa 0,0 l/m 0 min 2 min 39 W/m 16,1 km/h (3 Bft) 100,00 %
05.11.2023 10:38 11,1 C 10,6 C 6,7 C 96 % 975,4 hPa 0,2 l/m 0 min 2 min 35 W/m 12,9 km/h (3 Bft) 100,00 %
05.11.2023 10:40 11,1 C 10,6 C 6,7 C 96 % 975,5 hPa 0,0 l/m 0 min 2 min 32 W/m 22,5 km/h (4 Bft) 100,00 %
05.11.2023 10:42 11,0 C 10,6 C 6,7 C 96 % 975,6 hPa 0,0 l/m 0 min 2 min 41 W/m 16,1 km/h (3 Bft) 100,00 %
05.11.2023 10:44 10,9 C 10,0 C 6,7 C 96 % 975,6 hPa 0,0 l/m 0 min 2 min 52 W/m 22,5 km/h (4 Bft) 100,00 %
05.11.2023 10:46 10,9 C 10,0 C 6,7 C 96 % 975,6 hPa 0,2 l/m 0 min 2 min 48 W/m 22,5 km/h (4 Bft) 95,74 %
05.11.2023 10:48 10,9 C 10,0 C 6,7 C 95 % 975,8 hPa 0,0 l/m 0 min 2 min 40 W/m 16,1 km/h (3 Bft) 100,00 %
05.11.2023 10:50 10,9 C 10,0 C 6,7 C 95 % 975,8 hPa 0,2 l/m 0 min 2 min 45 W/m 6,4 km/h (2 Bft) 100,00 %
05.11.2023 10:52 10,8 C 10,0 C 6,7 C 96 % 975,8 hPa 0,0 l/m 0 min 0 min 63 W/m 22,5 km/h (4 Bft) 100,00 %
05.11.2023 10:54 10,8 C 10,0 C 6,7 C 96 % 975,9 hPa 0,0 l/m 0 min 0 min 73 W/m 22,5 km/h (4 Bft) 98,00 %
05.11.2023 10:56 10,8 C 10,0 C 6,7 C 96 % 975,9 hPa 0,0 l/m 0 min 0 min 74 W/m 12,9 km/h (3 Bft) 97,14 %
05.11.2023 10:58 10,8 C 10,0 C 6,7 C 96 % 976,0 hPa 0,0 l/m 0 min 2 min 80 W/m 12,9 km/h (3 Bft) 100,00 %
05.11.2023 11:00 10,8 C 10,0 C 6,7 C 96 % 976,0 hPa 0,0 l/m 0 min 2 min 89 W/m 16,1 km/h (3 Bft) 96,15 %
05.11.2023 11:02 10,8 C 10,0 C 6,7 C 96 % 976,0 hPa 0,0 l/m 0 min 2 min 85 W/m 16,1 km/h (3 Bft) 97,87 %
05.11.2023 11:04 10,8 C 10,0 C 6,7 C 96 % 976,1 hPa 0,0 l/m 0 min 2 min 67 W/m 12,9 km/h (3 Bft) 97,14 %
05.11.2023 11:06 10,8 C 10,0 C 6,7 C 96 % 976,1 hPa 0,2 l/m 0 min 2 min 94 W/m 12,9 km/h (3 Bft) 96,61 %
05.11.2023 11:08 10,8 C 10,0 C 6,7 C 96 % 976,1 hPa 0,0 l/m 0 min 2 min 124 W/m 12,9 km/h (3 Bft) 95,74 %
05.11.2023 11:10 10,8 C 10,0 C 6,7 C 96 % 976,2 hPa 0,0 l/m 0 min 0 min 138 W/m 22,5 km/h (4 Bft) 93,62 %
05.11.2023 11:12 10,8 C 10,0 C 7,2 C 96 % 976,2 hPa 0,0 l/m 0 min 0 min 142 W/m 12,9 km/h (3 Bft) 95,74 %
05.11.2023 11:14 10,8 C 10,6 C 7,2 C 96 % 976,2 hPa 0,0 l/m 0 min 0 min 142 W/m 6,4 km/h (2 Bft) 95,65 %
05.11.2023 11:16 10,8 C 10,6 C 7,2 C 97 % 976,3 hPa 0,0 l/m 0 min 0 min 135 W/m 16,1 km/h (3 Bft) 93,62 %
05.11.2023 11:18 10,8 C 10,6 C 7,2 C 97 % 976,3 hPa 0,0 l/m 0 min 0 min 120 W/m 29,0 km/h (5 Bft) 95,74 %
05.11.2023 11:20 10,8 C 10,6 C 7,2 C 97 % 976,4 hPa 0,0 l/m 0 min 0 min 111 W/m 12,9 km/h (3 Bft) 94,12 %
05.11.2023 11:24 10,9 C 10,6 C 7,2 C 97 % 976,5 hPa 0,0 l/m 0 min 0 min 116 W/m 12,9 km/h (3 Bft) 94,68 %
05.11.2023 11:26 10,9 C 10,6 C 7,2 C 97 % 976,6 hPa 0,0 l/m 0 min 0 min 128 W/m 12,9 km/h (3 Bft) 95,74 %
05.11.2023 11:28 10,9 C 10,6 C 7,2 C 97 % 976,6 hPa 0,0 l/m 0 min 0 min 87 W/m 12,9 km/h (3 Bft) 93,48 %
05.11.2023 11:30 10,9 C 10,6 C 7,2 C 97 % 976,6 hPa 0,0 l/m 0 min 0 min 80 W/m 19,3 km/h (3 Bft) 93,62 %
05.11.2023 11:32 10,9 C 10,6 C 7,2 C 97 % 976,6 hPa 0,0 l/m 0 min 0 min 80 W/m 16,1 km/h (3 Bft) 93,62 %
05.11.2023 11:34 10,9 C 10,6 C 7,2 C 97 % 976,6 hPa 0,0 l/m 0 min 0 min 91 W/m 29,0 km/h (5 Bft) 95,74 %
05.11.2023 11:36 10,9 C 10,6 C 7,2 C 97 % 976,7 hPa 0,0 l/m 0 min 0 min 112 W/m 16,1 km/h (3 Bft) 95,74 %
05.11.2023 11:38 10,9 C 10,6 C 7,2 C 97 % 976,7 hPa 0,0 l/m 0 min 0 min 114 W/m 16,1 km/h (3 Bft) 95,74 %
05.11.2023 11:40 10,9 C 10,6 C 7,2 C 97 % 976,8 hPa 0,0 l/m 0 min 0 min 112 W/m 16,1 km/h (3 Bft) 93,62 %
05.11.2023 11:42 10,9 C 10,6 C 7,2 C 96 % 976,8 hPa 0,0 l/m 0 min 0 min 105 W/m 19,3 km/h (3 Bft) 93,62 %
05.11.2023 11:44 11,0 C 11,1 C 7,2 C 96 % 976,8 hPa 0,0 l/m 0 min 0 min 112 W/m 29,0 km/h (5 Bft) 95,74 %
05.11.2023 11:46 11,0 C 11,1 C 7,2 C 96 % 976,9 hPa 0,0 l/m 0 min 0 min 137 W/m 19,3 km/h (3 Bft) 100,00 %
05.11.2023 11:48 11,1 C 11,1 C 7,2 C 96 % 976,9 hPa 0,0 l/m 0 min 0 min 116 W/m 22,5 km/h (4 Bft) 100,00 %
05.11.2023 11:50 11,1 C 11,1 C 7,2 C 96 % 977,0 hPa 0,0 l/m 0 min 0 min 121 W/m 22,5 km/h (4 Bft) 100,00 %
05.11.2023 11:52 11,1 C 11,1 C 7,2 C 96 % 977,0 hPa 0,0 l/m 0 min 0 min 113 W/m 16,1 km/h (3 Bft) 100,00 %
05.11.2023 11:54 11,2 C 11,1 C 7,2 C 96 % 977,1 hPa 0,0 l/m 0 min 0 min 85 W/m 22,5 km/h (4 Bft) 100,00 %
05.11.2023 11:56 11,2 C 11,1 C 7,2 C 96 % 977,1 hPa 0,0 l/m 0 min 0 min 68 W/m 22,5 km/h (4 Bft) 98,00 %
05.11.2023 11:58 11,2 C 11,1 C 7,2 C 96 % 977,1 hPa 0,0 l/m 0 min 2 min 89 W/m 16,1 km/h (3 Bft) 97,83 %
05.11.2023 12:00 11,2 C 11,1 C 7,2 C 96 % 977,2 hPa 0,0 l/m 0 min 2 min 100 W/m 16,1 km/h (3 Bft) 100,00 %
05.11.2023 12:02 11,2 C 11,1 C 7,2 C 96 % 977,2 hPa 0,0 l/m 0 min 2 min 117 W/m 16,1 km/h (3 Bft) 100,00 %
05.11.2023 12:04 11,2 C 11,1 C 7,2 C 96 % 977,4 hPa 0,0 l/m 0 min 0 min 109 W/m 22,5 km/h (4 Bft) 100,00 %
05.11.2023 12:08 11,2 C 10,6 C 7,2 C 95 % 977,4 hPa 0,0 l/m 0 min 4 min 114 W/m 61,2 km/h (7 Bft) 100,00 %
05.11.2023 12:10 11,2 C 10,6 C 7,2 C 95 % 977,5 hPa 0,0 l/m 0 min 2 min 141 W/m 16,1 km/h (3 Bft) 100,00 %
05.11.2023 12:12 11,2 C 10,6 C 7,2 C 95 % 977,5 hPa 0,0 l/m 0 min 2 min 126 W/m 16,1 km/h (3 Bft) 100,00 %
05.11.2023 12:16 11,2 C 10,6 C 7,2 C 95 % 977,7 hPa 0,0 l/m 0 min 4 min 106 W/m 22,5 km/h (4 Bft) 97,87 %
05.11.2023 12:18 11,2 C 10,6 C 7,2 C 95 % 977,7 hPa 0,0 l/m 0 min 0 min 74 W/m 19,3 km/h (3 Bft) 95,74 %
05.11.2023 12:20 11,2 C 10,6 C 7,2 C 95 % 977,8 hPa 0,0 l/m 0 min 0 min 70 W/m 16,1 km/h (3 Bft) 97,87 %
05.11.2023 12:22 11,2 C 10,6 C 7,2 C 95 % 977,8 hPa 0,0 l/m 0 min 2 min 78 W/m 19,3 km/h (3 Bft) 97,87 %
05.11.2023 12:24 11,2 C 10,6 C 7,2 C 95 % 977,9 hPa 0,0 l/m 0 min 2 min 67 W/m 12,9 km/h (3 Bft) 97,87 %
05.11.2023 12:26 11,2 C 10,6 C 7,2 C 95 % 977,9 hPa 0,0 l/m 0 min 2 min 61 W/m 16,1 km/h (3 Bft) 97,87 %
05.11.2023 12:28 11,1 C 10,6 C 7,2 C 95 % 977,9 hPa 0,0 l/m 0 min 2 min 54 W/m 29,0 km/h (5 Bft) 97,87 %
05.11.2023 12:30 11,1 C 10,6 C 7,2 C 95 % 978,0 hPa 0,0 l/m 0 min 2 min 47 W/m 19,3 km/h (3 Bft) 95,74 %
05.11.2023 12:32 11,1 C 10,6 C 6,7 C 95 % 978,0 hPa 0,0 l/m 0 min 0 min 55 W/m 25,7 km/h (4 Bft) 97,83 %
05.11.2023 12:34 11,1 C 10,6 C 6,7 C 95 % 978,1 hPa 0,0 l/m 0 min 0 min 55 W/m 22,5 km/h (4 Bft) 93,62 %
05.11.2023 12:36 11,1 C 10,6 C 6,7 C 95 % 978,2 hPa 0,0 l/m 0 min 0 min 46 W/m 12,9 km/h (3 Bft) 97,87 %
05.11.2023 12:38 11,1 C 10,6 C 6,7 C 95 % 978,2 hPa 0,0 l/m 0 min 0 min 45 W/m 25,7 km/h (4 Bft) 97,87 %
05.11.2023 12:40 11,0 C 10,6 C 6,7 C 95 % 978,3 hPa 0,0 l/m 0 min 2 min 51 W/m 22,5 km/h (4 Bft) 95,74 %
05.11.2023 12:42 11,0 C 10,6 C 6,7 C 95 % 978,3 hPa 0,0 l/m 0 min 2 min 70 W/m 35,4 km/h (5 Bft) 97,87 %
05.11.2023 12:44 11,0 C 10,6 C 6,7 C 95 % 978,4 hPa 0,0 l/m 0 min 2 min 62 W/m 22,5 km/h (4 Bft) 97,87 %
05.11.2023 12:46 11,0 C 10,6 C 6,7 C 95 % 978,4 hPa 0,0 l/m 0 min 2 min 48 W/m 22,5 km/h (4 Bft) 97,87 %
05.11.2023 12:48 11,0 C 10,6 C 6,7 C 95 % 978,5 hPa 0,0 l/m 0 min 2 min 41 W/m 22,5 km/h (4 Bft) 97,87 %
05.11.2023 12:50 10,9 C 10,6 C 6,7 C 95 % 978,5 hPa 0,0 l/m 0 min 2 min 45 W/m 25,7 km/h (4 Bft) 93,62 %
05.11.2023 12:52 10,9 C 10,6 C 6,7 C 95 % 978,6 hPa 0,2 l/m 0 min 0 min 77 W/m 19,3 km/h (3 Bft) 97,83 %
05.11.2023 12:54 10,9 C 10,6 C 6,7 C 95 % 978,6 hPa 0,0 l/m 0 min 2 min 98 W/m 12,9 km/h (3 Bft) 95,74 %
05.11.2023 12:56 11,0 C 10,6 C 6,7 C 95 % 978,7 hPa 0,0 l/m 0 min 2 min 119 W/m 22,5 km/h (4 Bft) 97,87 %
05.11.2023 12:58 11,0 C 10,6 C 6,7 C 95 % 978,8 hPa 0,0 l/m 0 min 2 min 134 W/m 16,1 km/h (3 Bft) 97,87 %
05.11.2023 13:00 10,9 C 10,6 C 6,7 C 95 % 978,9 hPa 0,0 l/m 0 min 2 min 130 W/m 25,7 km/h (4 Bft) 97,87 %
05.11.2023 13:02 11,0 C 10,6 C 6,7 C 95 % 979,0 hPa 0,0 l/m 0 min 2 min 109 W/m 22,5 km/h (4 Bft) 95,74 %
05.11.2023 13:04 11,0 C 10,6 C 6,7 C 95 % 979,1 hPa 0,0 l/m 0 min 2 min 99 W/m 19,3 km/h (3 Bft) 95,83 %
05.11.2023 13:07 11,0 C 10,6 C 6,7 C 95 % 979,1 hPa 0,0 l/m 0 min 3 min 87 W/m 19,3 km/h (3 Bft) 95,83 %
05.11.2023 13:08 11,0 C 10,6 C 6,7 C 95 % 979,1 hPa 0,0 l/m 0 min 1 min 87 W/m 19,3 km/h (3 Bft) 95,83 %
05.11.2023 13:10 11,0 C 10,6 C 6,7 C 95 % 979,2 hPa 0,0 l/m 0 min 2 min 97 W/m 22,5 km/h (4 Bft) 97,87 %
05.11.2023 13:12 11,1 C 10,6 C 6,7 C 95 % 979,3 hPa 0,0 l/m 0 min 0 min 114 W/m 19,3 km/h (3 Bft) 95,74 %
05.11.2023 13:14 11,1 C 10,6 C 6,7 C 95 % 979,4 hPa 0,0 l/m 0 min 0 min 75 W/m 16,1 km/h (3 Bft) 97,83 %
05.11.2023 13:16 11,1 C 10,6 C 6,7 C 95 % 979,5 hPa 0,0 l/m 0 min 0 min 76 W/m 19,3 km/h (3 Bft) 97,87 %
05.11.2023 13:18 11,1 C 10,6 C 6,7 C 95 % 979,5 hPa 0,0 l/m 0 min 0 min 78 W/m 16,1 km/h (3 Bft) 95,74 %
05.11.2023 13:20 11,1 C 10,6 C 6,7 C 95 % 979,6 hPa 0,0 l/m 0 min 0 min 64 W/m 16,1 km/h (3 Bft) 97,87 %
05.11.2023 13:22 11,1 C 10,6 C 6,7 C 95 % 979,6 hPa 0,0 l/m 0 min 0 min 67 W/m 22,5 km/h (4 Bft) 95,74 %
05.11.2023 13:24 11,1 C 10,6 C 6,7 C 95 % 979,6 hPa 0,0 l/m 0 min 0 min 69 W/m 19,3 km/h (3 Bft) 97,87 %
05.11.2023 13:26 11,1 C 10,6 C 6,7 C 95 % 979,7 hPa 0,0 l/m 0 min 0 min 48 W/m 25,7 km/h (4 Bft) 97,87 %
05.11.2023 13:28 11,1 C 10,6 C 6,7 C 95 % 979,8 hPa 0,0 l/m 0 min 0 min 64 W/m 25,7 km/h (4 Bft) 95,74 %
05.11.2023 13:30 11,1 C 10,6 C 6,7 C 95 % 979,8 hPa 0,0 l/m 0 min 0 min 62 W/m 32,2 km/h (5 Bft) 97,87 %
05.11.2023 13:32 11,1 C 10,6 C 6,7 C 95 % 979,8 hPa 0,0 l/m 0 min 2 min 66 W/m 35,4 km/h (5 Bft) 97,87 %
05.11.2023 13:34 11,1 C 10,6 C 6,7 C 95 % 980,0 hPa 0,0 l/m 0 min 0 min 40 W/m 19,3 km/h (3 Bft) 97,87 %
05.11.2023 13:36 11,1 C 10,6 C 6,7 C 94 % 980,1 hPa 0,0 l/m 0 min 0 min 33 W/m 16,1 km/h (3 Bft) 97,87 %
05.11.2023 13:38 11,1 C 10,6 C 6,7 C 94 % 980,1 hPa 0,0 l/m 0 min 2 min 32 W/m 12,9 km/h (3 Bft) 97,87 %
05.11.2023 13:40 11,1 C 10,6 C 6,7 C 94 % 980,1 hPa 0,0 l/m 0 min 2 min 46 W/m 19,3 km/h (3 Bft) 95,65 %
05.11.2023 13:42 11,1 C 10,6 C 6,7 C 94 % 980,1 hPa 0,0 l/m 0 min 2 min 64 W/m 12,9 km/h (3 Bft) 97,87 %
05.11.2023 13:44 11,1 C 10,6 C 6,7 C 94 % 980,2 hPa 0,0 l/m 0 min 2 min 66 W/m 16,1 km/h (3 Bft) 97,87 %
05.11.2023 13:46 11,0 C 10,6 C 6,7 C 94 % 980,2 hPa 0,0 l/m 0 min 2 min 72 W/m 19,3 km/h (3 Bft) 97,87 %
05.11.2023 13:48 11,0 C 10,6 C 6,7 C 94 % 980,3 hPa 0,0 l/m 0 min 2 min 82 W/m 19,3 km/h (3 Bft) 95,74 %
05.11.2023 13:50 11,0 C 10,6 C 6,7 C 94 % 980,3 hPa 0,0 l/m 0 min 0 min 72 W/m 16,1 km/h (3 Bft) 97,14 %
05.11.2023 13:52 11,0 C 10,6 C 6,7 C 94 % 980,3 hPa 0,0 l/m 0 min 0 min 78 W/m 22,5 km/h (4 Bft) 98,33 %
05.11.2023 13:54 11,0 C 10,6 C 6,7 C 94 % 980,4 hPa 0,0 l/m 0 min 0 min 96 W/m 16,1 km/h (3 Bft) 97,87 %
05.11.2023 13:56 11,1 C 10,6 C 6,7 C 94 % 980,5 hPa 0,0 l/m 0 min 0 min 95 W/m 35,4 km/h (5 Bft) 97,14 %
05.11.2023 13:58 11,1 C 10,6 C 6,7 C 94 % 980,5 hPa 0,0 l/m 0 min 0 min 74 W/m 19,3 km/h (3 Bft) 98,31 %
05.11.2023 14:00 11,1 C 10,6 C 6,7 C 94 % 980,6 hPa 0,0 l/m 0 min 0 min 73 W/m 16,1 km/h (3 Bft) 97,14 %
05.11.2023 14:02 11,1 C 10,6 C 6,7 C 94 % 980,7 hPa 0,0 l/m 0 min 0 min 70 W/m 12,9 km/h (3 Bft) 95,74 %
05.11.2023 14:04 11,1 C 10,6 C 6,7 C 94 % 980,7 hPa 0,0 l/m 0 min 0 min 59 W/m 19,3 km/h (3 Bft) 97,87 %
05.11.2023 14:10 11,1 C 10,6 C 6,7 C 94 % 980,8 hPa 0,0 l/m 0 min 0 min 65 W/m 19,3 km/h (3 Bft) 97,18 %
05.11.2023 14:12 11,2 C 10,6 C 6,7 C 94 % 980,8 hPa 0,0 l/m 0 min 0 min 63 W/m 22,5 km/h (4 Bft) 97,87 %
05.11.2023 14:14 11,2 C 10,6 C 6,7 C 94 % 980,8 hPa 0,0 l/m 0 min 0 min 56 W/m 19,3 km/h (3 Bft) 97,87 %
05.11.2023 14:16 11,2 C 10,6 C 6,7 C 94 % 980,9 hPa 0,0 l/m 0 min 0 min 43 W/m 12,9 km/h (3 Bft) 100,00 %
05.11.2023 14:18 11,2 C 10,6 C 6,7 C 93 % 981,0 hPa 0,0 l/m 0 min 0 min 46 W/m 25,7 km/h (4 Bft) 100,00 %
05.11.2023 14:20 11,2 C 10,6 C 6,7 C 93 % 981,1 hPa 0,0 l/m 0 min 0 min 46 W/m 19,3 km/h (3 Bft) 100,00 %
05.11.2023 14:22 11,2 C 10,6 C 6,7 C 93 % 981,0 hPa 0,0 l/m 0 min 0 min 55 W/m 16,1 km/h (3 Bft) 100,00 %
05.11.2023 14:24 11,2 C 10,6 C 6,7 C 93 % 981,1 hPa 0,0 l/m 0 min 0 min 37 W/m 16,1 km/h (3 Bft) 100,00 %
05.11.2023 14:26 11,2 C 10,6 C 6,7 C 93 % 981,2 hPa 0,0 l/m 0 min 0 min 23 W/m 25,7 km/h (4 Bft) 100,00 %
05.11.2023 14:28 11,2 C 10,6 C 6,7 C 93 % 981,3 hPa 0,0 l/m 0 min 0 min 21 W/m 25,7 km/h (4 Bft) 100,00 %
05.11.2023 14:30 11,2 C 10,6 C 6,7 C 93 % 981,4 hPa 0,0 l/m 0 min 2 min 26 W/m 19,3 km/h (3 Bft) 97,87 %
05.11.2023 14:32 11,2 C 10,6 C 6,7 C 93 % 981,4 hPa 0,0 l/m 0 min 2 min 45 W/m 25,7 km/h (4 Bft) 100,00 %
05.11.2023 14:34 11,2 C 10,6 C 6,7 C 92 % 981,5 hPa 0,0 l/m 0 min 0 min 48 W/m 16,1 km/h (3 Bft) 97,87 %
05.11.2023 14:36 11,2 C 10,6 C 6,7 C 92 % 981,5 hPa 0,0 l/m 0 min 0 min 45 W/m 16,1 km/h (3 Bft) 100,00 %
05.11.2023 14:38 11,2 C 10,6 C 6,7 C 92 % 981,6 hPa 0,0 l/m 0 min 0 min 64 W/m 22,5 km/h (4 Bft) 100,00 %
05.11.2023 14:40 11,2 C 10,6 C 6,7 C 92 % 981,7 hPa 0,0 l/m 0 min 0 min 70 W/m 35,4 km/h (5 Bft) 100,00 %
05.11.2023 14:42 11,2 C 10,6 C 6,7 C 92 % 981,8 hPa 0,0 l/m 0 min 0 min 40 W/m 12,9 km/h (3 Bft) 100,00 %
05.11.2023 14:44 11,3 C 10,6 C 6,7 C 92 % 981,8 hPa 0,0 l/m 0 min 0 min 38 W/m 22,5 km/h (4 Bft) 100,00 %
05.11.2023 14:46 11,2 C 10,6 C 6,7 C 92 % 982,0 hPa 0,0 l/m 0 min 0 min 47 W/m 19,3 km/h (3 Bft) 100,00 %
05.11.2023 14:48 11,2 C 10,6 C 6,7 C 91 % 982,0 hPa 0,0 l/m 0 min 0 min 52 W/m 19,3 km/h (3 Bft) 100,00 %
05.11.2023 14:50 11,2 C 10,6 C 6,7 C 91 % 982,1 hPa 0,0 l/m 0 min 0 min 41 W/m 19,3 km/h (3 Bft) 97,87 %
05.11.2023 14:52 11,3 C 10,6 C 6,7 C 91 % 982,1 hPa 0,0 l/m 0 min 0 min 23 W/m 16,1 km/h (3 Bft) 97,87 %
05.11.2023 14:54 11,2 C 10,6 C 6,7 C 91 % 982,2 hPa 0,0 l/m 0 min 0 min 18 W/m 16,1 km/h (3 Bft) 97,92 %
05.11.2023 14:56 11,2 C 10,6 C 6,7 C 91 % 982,3 hPa 0,0 l/m 0 min 2 min 20 W/m 32,2 km/h (5 Bft) 97,87 %
05.11.2023 14:58 11,2 C 10,6 C 6,7 C 91 % 982,3 hPa 0,0 l/m 0 min 2 min 31 W/m 22,5 km/h (4 Bft) 95,74 %
05.11.2023 15:00 11,2 C 10,6 C 6,7 C 91 % 982,4 hPa 0,0 l/m 0 min 2 min 28 W/m 19,3 km/h (3 Bft) 97,87 %
05.11.2023 15:02 11,1 C 10,6 C 6,7 C 91 % 982,5 hPa 0,0 l/m 0 min 2 min 25 W/m 22,5 km/h (4 Bft) 97,87 %
05.11.2023 15:04 11,1 C 10,6 C 6,1 C 91 % 982,5 hPa 0,0 l/m 0 min 2 min 28 W/m 25,7 km/h (4 Bft) 95,65 %
05.11.2023 15:06 11,1 C 10,6 C 6,7 C 91 % 982,6 hPa 0,0 l/m 0 min 2 min 37 W/m 19,3 km/h (3 Bft) 95,74 %
05.11.2023 15:08 11,1 C 10,0 C 6,7 C 91 % 982,6 hPa 0,0 l/m 0 min 2 min 34 W/m 19,3 km/h (3 Bft) 97,83 %
05.11.2023 15:10 11,0 C 10,0 C 6,7 C 92 % 982,7 hPa 0,0 l/m 0 min 2 min 34 W/m 32,2 km/h (5 Bft) 97,87 %
05.11.2023 15:12 11,0 C 10,0 C 6,7 C 92 % 982,8 hPa 0,0 l/m 0 min 0 min 27 W/m 22,5 km/h (4 Bft) 97,87 %
05.11.2023 15:14 10,9 C 10,0 C 6,1 C 92 % 982,8 hPa 0,0 l/m 0 min 0 min 20 W/m 35,4 km/h (5 Bft) 97,87 %
05.11.2023 15:16 10,9 C 10,0 C 6,1 C 92 % 982,8 hPa 0,0 l/m 0 min 0 min 22 W/m 35,4 km/h (5 Bft) 93,62 %
05.11.2023 15:18 10,9 C 10,0 C 6,1 C 92 % 983,0 hPa 0,0 l/m 0 min 0 min 23 W/m 19,3 km/h (3 Bft) 97,87 %
05.11.2023 15:20 10,9 C 10,6 C 6,1 C 92 % 982,9 hPa 0,0 l/m 0 min 0 min 22 W/m 25,7 km/h (4 Bft) 93,62 %
05.11.2023 15:22 10,9 C 10,6 C 6,1 C 92 % 983,0 hPa 0,0 l/m 0 min 0 min 21 W/m 19,3 km/h (3 Bft) 100,00 %
05.11.2023 15:24 10,9 C 10,6 C 6,1 C 91 % 983,0 hPa 0,0 l/m 0 min 0 min 29 W/m 19,3 km/h (3 Bft) 97,87 %
05.11.2023 15:26 10,9 C 10,6 C 6,1 C 91 % 983,1 hPa 0,0 l/m 0 min 0 min 46 W/m 22,5 km/h (4 Bft) 97,87 %
05.11.2023 15:28 10,9 C 10,6 C 6,1 C 91 % 983,2 hPa 0,0 l/m 0 min 0 min 36 W/m 22,5 km/h (4 Bft) 97,87 %
05.11.2023 15:30 10,9 C 10,6 C 6,1 C 91 % 983,2 hPa 0,0 l/m 0 min 0 min 20 W/m 19,3 km/h (3 Bft) 97,83 %
05.11.2023 15:32 10,9 C 10,6 C 6,1 C 91 % 983,4 hPa 0,0 l/m 0 min 0 min 18 W/m 22,5 km/h (4 Bft) 97,87 %
05.11.2023 15:34 10,9 C 10,0 C 6,1 C 91 % 983,4 hPa 0,0 l/m 0 min 2 min 15 W/m 29,0 km/h (5 Bft) 97,87 %
05.11.2023 15:36 10,9 C 10,0 C 6,1 C 91 % 983,4 hPa 0,0 l/m 0 min 2 min 12 W/m 29,0 km/h (5 Bft) 97,87 %
05.11.2023 15:38 10,8 C 10,0 C 6,1 C 91 % 983,5 hPa 0,0 l/m 0 min 2 min 16 W/m 16,1 km/h (3 Bft) 97,14 %
05.11.2023 15:40 10,8 C 10,0 C 6,1 C 92 % 983,5 hPa 0,0 l/m 0 min 2 min 18 W/m 25,7 km/h (4 Bft) 95,74 %
05.11.2023 15:42 10,8 C 10,0 C 6,1 C 92 % 983,6 hPa 0,0 l/m 0 min 0 min 12 W/m 25,7 km/h (4 Bft) 98,15 %
05.11.2023 15:44 10,8 C 10,0 C 6,1 C 92 % 983,7 hPa 0,0 l/m 0 min 0 min 11 W/m 16,1 km/h (3 Bft) 96,00 %
05.11.2023 15:46 10,7 C 10,0 C 6,1 C 92 % 983,9 hPa 0,2 l/m 0 min 2 min 16 W/m 19,3 km/h (3 Bft) 97,87 %
05.11.2023 15:48 10,7 C 10,0 C 6,1 C 92 % 983,9 hPa 0,0 l/m 0 min 2 min 20 W/m 25,7 km/h (4 Bft) 95,65 %
05.11.2023 15:50 10,7 C 10,0 C 6,1 C 92 % 984,0 hPa 0,0 l/m 0 min 2 min 24 W/m 29,0 km/h (5 Bft) 95,74 %
05.11.2023 15:52 10,7 C 10,0 C 6,1 C 92 % 984,0 hPa 0,0 l/m 0 min 2 min 24 W/m 22,5 km/h (4 Bft) 97,87 %
05.11.2023 15:54 10,6 C 10,0 C 6,1 C 92 % 984,1 hPa 0,0 l/m 0 min 2 min 24 W/m 22,5 km/h (4 Bft) 97,96 %
05.11.2023 15:56 10,6 C 10,0 C 6,1 C 92 % 984,3 hPa 0,0 l/m 0 min 2 min 23 W/m 19,3 km/h (3 Bft) 97,87 %
05.11.2023 15:58 10,6 C 10,0 C 6,1 C 92 % 984,3 hPa 0,0 l/m 0 min 2 min 17 W/m 25,7 km/h (4 Bft) 89,36 %
05.11.2023 16:00 10,6 C 9,4 C 6,1 C 92 % 984,4 hPa 0,0 l/m 0 min 2 min 13 W/m 35,4 km/h (5 Bft) 97,14 %
05.11.2023 16:02 10,6 C 9,4 C 6,1 C 92 % 984,5 hPa 0,0 l/m 0 min 2 min 10 W/m 22,5 km/h (4 Bft) 92,59 %
05.11.2023 16:04 10,5 C 9,4 C 6,1 C 92 % 984,5 hPa 0,2 l/m 0 min 2 min 7 W/m 19,3 km/h (3 Bft) 91,11 %
05.11.2023 16:10 10,4 C 9,4 C 6,1 C 93 % 984,6 hPa 0,2 l/m 0 min 5 min 7 W/m 29,0 km/h (5 Bft) 95,92 %
05.11.2023 16:12 10,3 C 9,4 C 6,1 C 93 % 984,7 hPa 0,0 l/m 0 min 2 min 8 W/m 22,5 km/h (4 Bft) 95,74 %
05.11.2023 16:14 10,3 C 9,4 C 6,1 C 93 % 984,7 hPa 0,0 l/m 0 min 2 min 9 W/m 22,5 km/h (4 Bft) 95,74 %
05.11.2023 16:16 10,3 C 9,4 C 6,1 C 94 % 984,8 hPa 0,0 l/m 0 min 2 min 13 W/m 29,0 km/h (5 Bft) 95,74 %
05.11.2023 16:18 10,2 C 9,4 C 6,1 C 94 % 984,8 hPa 0,0 l/m 0 min 2 min 18 W/m 16,1 km/h (3 Bft) 95,74 %
05.11.2023 16:20 10,2 C 9,4 C 6,1 C 94 % 984,8 hPa 0,0 l/m 0 min 2 min 21 W/m 19,3 km/h (3 Bft) 97,87 %
05.11.2023 16:22 10,2 C 9,4 C 6,1 C 94 % 984,8 hPa 0,0 l/m 0 min 2 min 24 W/m 25,7 km/h (4 Bft) 97,87 %
05.11.2023 16:24 10,2 C 9,4 C 6,1 C 94 % 984,9 hPa 0,0 l/m 0 min 0 min 21 W/m 16,1 km/h (3 Bft) 97,87 %
05.11.2023 16:26 10,2 C 9,4 C 6,1 C 94 % 984,9 hPa 0,0 l/m 0 min 0 min 17 W/m 19,3 km/h (3 Bft) 95,65 %
05.11.2023 16:28 10,2 C 9,4 C 6,1 C 94 % 985,0 hPa 0,0 l/m 0 min 0 min 12 W/m 25,7 km/h (4 Bft) 95,74 %
05.11.2023 16:30 10,2 C 9,4 C 6,1 C 94 % 985,0 hPa 0,0 l/m 0 min 0 min 13 W/m 19,3 km/h (3 Bft) 95,74 %
05.11.2023 16:32 10,2 C 9,4 C 6,1 C 94 % 985,1 hPa 0,0 l/m 0 min 0 min 16 W/m 16,1 km/h (3 Bft) 97,87 %
05.11.2023 16:34 10,2 C 9,4 C 6,1 C 94 % 985,1 hPa 0,0 l/m 0 min 0 min 17 W/m 19,3 km/h (3 Bft) 95,74 %
05.11.2023 16:36 10,2 C 9,4 C 6,1 C 94 % 985,2 hPa 0,0 l/m 0 min 0 min 19 W/m 16,1 km/h (3 Bft) 95,74 %
05.11.2023 16:38 10,2 C 9,4 C 6,1 C 94 % 985,2 hPa 0,0 l/m 0 min 0 min 12 W/m 12,9 km/h (3 Bft) 93,62 %
05.11.2023 16:40 10,2 C 9,4 C 6,1 C 94 % 985,3 hPa 0,0 l/m 0 min 0 min 11 W/m 19,3 km/h (3 Bft) 95,74 %
05.11.2023 16:42 10,2 C 9,4 C 6,1 C 94 % 985,4 hPa 0,0 l/m 0 min 0 min 10 W/m 22,5 km/h (4 Bft) 98,00 %
05.11.2023 16:44 10,2 C 9,4 C 6,1 C 94 % 985,5 hPa 0,0 l/m 0 min 0 min 7 W/m 16,1 km/h (3 Bft) 95,74 %
05.11.2023 16:46 10,2 C 9,4 C 6,1 C 94 % 985,5 hPa 0,0 l/m 0 min 2 min 8 W/m 25,7 km/h (4 Bft) 97,83 %
05.11.2023 16:48 10,2 C 9,4 C 6,1 C 94 % 985,5 hPa 0,0 l/m 0 min 2 min 9 W/m 19,3 km/h (3 Bft) 97,87 %
05.11.2023 16:50 10,2 C 9,4 C 6,1 C 94 % 985,6 hPa 0,0 l/m 0 min 2 min 9 W/m 25,7 km/h (4 Bft) 100,00 %
05.11.2023 16:54 10,3 C 9,4 C 6,1 C 94 % 985,7 hPa 0,0 l/m 0 min 0 min 5 W/m 12,9 km/h (3 Bft) 97,10 %
05.11.2023 16:56 10,3 C 9,4 C 6,1 C 94 % 985,9 hPa 0,0 l/m 0 min 0 min 4 W/m 22,5 km/h (4 Bft) 95,95 %
05.11.2023 16:58 10,3 C 9,4 C 6,1 C 94 % 985,9 hPa 0,0 l/m 0 min 0 min 0 W/m 16,1 km/h (3 Bft) 97,92 %
05.11.2023 17:00 10,3 C 9,4 C 6,1 C 94 % 985,9 hPa 0,0 l/m 0 min 0 min 0 W/m 22,5 km/h (4 Bft) 97,83 %
05.11.2023 17:02 10,3 C 9,4 C 6,1 C 94 % 986,0 hPa 0,0 l/m 0 min 2 min 0 W/m 22,5 km/h (4 Bft) 93,62 %
05.11.2023 17:04 10,3 C 9,4 C 6,1 C 93 % 986,1 hPa 0,0 l/m 0 min 2 min 0 W/m 25,7 km/h (4 Bft) 97,87 %
05.11.2023 17:08 10,3 C 10,0 C 5,6 C 93 % 986,3 hPa 0,0 l/m 0 min 4 min 0 W/m 35,4 km/h (5 Bft) 96,91 %
05.11.2023 17:10 10,3 C 9,4 C 5,6 C 93 % 986,3 hPa 0,0 l/m 0 min 2 min 0 W/m 12,9 km/h (3 Bft) 97,87 %
05.11.2023 17:12 10,3 C 9,4 C 5,6 C 93 % 986,3 hPa 0,0 l/m 0 min 0 min 0 W/m 12,9 km/h (3 Bft) 97,87 %
05.11.2023 17:14 10,3 C 9,4 C 5,6 C 93 % 986,4 hPa 0,0 l/m 0 min 0 min 0 W/m 16,1 km/h (3 Bft) 100,00 %
05.11.2023 17:16 10,4 C 10,0 C 5,6 C 93 % 986,4 hPa 0,0 l/m 0 min 0 min 0 W/m 22,5 km/h (4 Bft) 100,00 %
05.11.2023 17:18 10,4 C 10,0 C 5,6 C 92 % 986,6 hPa 0,0 l/m 0 min 0 min 0 W/m 22,5 km/h (4 Bft) 100,00 %
05.11.2023 17:20 10,4 C 10,0 C 5,6 C 92 % 986,7 hPa 0,0 l/m 0 min 0 min 0 W/m 16,1 km/h (3 Bft) 97,87 %
05.11.2023 17:22 10,4 C 10,0 C 5,6 C 92 % 986,6 hPa 0,0 l/m 0 min 0 min 0 W/m 16,1 km/h (3 Bft) 100,00 %
05.11.2023 17:24 10,4 C 10,0 C 5,6 C 92 % 986,6 hPa 0,0 l/m 0 min 0 min 0 W/m 12,9 km/h (3 Bft) 100,00 %
05.11.2023 17:26 10,4 C 10,0 C 5,6 C 92 % 986,7 hPa 0,0 l/m 0 min 0 min 0 W/m 19,3 km/h (3 Bft) 100,00 %
05.11.2023 17:28 10,5 C 10,0 C 5,6 C 92 % 986,7 hPa 0,0 l/m 0 min 0 min 0 W/m 25,7 km/h (4 Bft) 100,00 %
05.11.2023 17:30 10,5 C 10,0 C 5,6 C 91 % 986,9 hPa 0,0 l/m 0 min 0 min 0 W/m 22,5 km/h (4 Bft) 100,00 %
05.11.2023 17:32 10,5 C 10,0 C 5,6 C 91 % 986,9 hPa 0,0 l/m 0 min 0 min 0 W/m 22,5 km/h (4 Bft) 100,00 %
05.11.2023 17:34 10,6 C 10,0 C 5,6 C 91 % 987,0 hPa 0,0 l/m 0 min 0 min 0 W/m 22,5 km/h (4 Bft) 100,00 %
05.11.2023 17:36 10,6 C 10,0 C 5,6 C 91 % 987,0 hPa 0,0 l/m 0 min 0 min 0 W/m 22,5 km/h (4 Bft) 100,00 %
05.11.2023 17:38 10,6 C 10,0 C 5,6 C 90 % 987,2 hPa 0,0 l/m 0 min 0 min 0 W/m 16,1 km/h (3 Bft) 100,00 %
05.11.2023 17:40 10,7 C 10,0 C 5,6 C 90 % 987,2 hPa 0,0 l/m 0 min 0 min 0 W/m 22,5 km/h (4 Bft) 100,00 %
05.11.2023 17:42 10,7 C 10,0 C 5,6 C 90 % 987,2 hPa 0,0 l/m 0 min 0 min 0 W/m 29,0 km/h (5 Bft) 97,87 %
05.11.2023 17:44 10,7 C 10,0 C 5,6 C 89 % 987,3 hPa 0,0 l/m 0 min 0 min 0 W/m 16,1 km/h (3 Bft) 100,00 %
05.11.2023 17:46 10,7 C 10,0 C 5,6 C 89 % 987,4 hPa 0,0 l/m 0 min 0 min 0 W/m 19,3 km/h (3 Bft) 100,00 %
05.11.2023 17:48 10,7 C 10,0 C 5,6 C 89 % 987,5 hPa 0,0 l/m 0 min 0 min 0 W/m 22,5 km/h (4 Bft) 100,00 %
05.11.2023 17:50 10,7 C 10,0 C 5,6 C 89 % 987,5 hPa 0,0 l/m 0 min 0 min 0 W/m 16,1 km/h (3 Bft) 100,00 %
05.11.2023 17:52 10,7 C 10,0 C 5,6 C 89 % 987,6 hPa 0,0 l/m 0 min 0 min 0 W/m 25,7 km/h (4 Bft) 100,00 %
05.11.2023 17:54 10,7 C 10,0 C 5,6 C 89 % 987,6 hPa 0,0 l/m 0 min 0 min 0 W/m 16,1 km/h (3 Bft) 97,96 %
05.11.2023 17:56 10,7 C 10,0 C 5,6 C 88 % 987,8 hPa 0,0 l/m 0 min 0 min 0 W/m 22,5 km/h (4 Bft) 100,00 %
05.11.2023 17:58 10,7 C 10,0 C 5,6 C 88 % 987,8 hPa 0,0 l/m 0 min 0 min 0 W/m 19,3 km/h (3 Bft) 100,00 %
05.11.2023 18:00 10,7 C 10,0 C 5,6 C 88 % 987,8 hPa 0,0 l/m 0 min 0 min 0 W/m 25,7 km/h (4 Bft) 100,00 %
05.11.2023 18:02 10,7 C 10,0 C 5,6 C 88 % 987,8 hPa 0,0 l/m 0 min 0 min 0 W/m 12,9 km/h (3 Bft) 100,00 %
05.11.2023 18:04 10,7 C 10,0 C 5,6 C 88 % 987,9 hPa 0,0 l/m 0 min 0 min 0 W/m 22,5 km/h (4 Bft) 97,50 %
05.11.2023 18:10 10,6 C 10,0 C 5,6 C 87 % 988,0 hPa 0,0 l/m 0 min 0 min 0 W/m 19,3 km/h (3 Bft) 99,31 %
05.11.2023 18:12 10,6 C 10,0 C 5,6 C 87 % 988,1 hPa 0,0 l/m 0 min 0 min 0 W/m 19,3 km/h (3 Bft) 100,00 %
05.11.2023 18:16 10,6 C 10,0 C 5,0 C 87 % 988,2 hPa 0,0 l/m 0 min 0 min 0 W/m 16,1 km/h (3 Bft) 97,85 %
05.11.2023 18:18 10,6 C 10,0 C 5,0 C 87 % 988,2 hPa 0,0 l/m 0 min 0 min 0 W/m 25,7 km/h (4 Bft) 97,87 %
05.11.2023 18:20 10,6 C 10,0 C 5,0 C 87 % 988,4 hPa 0,0 l/m 0 min 0 min 0 W/m 12,9 km/h (3 Bft) 97,87 %
05.11.2023 18:22 10,6 C 10,0 C 5,0 C 87 % 988,5 hPa 0,0 l/m 0 min 0 min 0 W/m 29,0 km/h (5 Bft) 95,74 %
05.11.2023 18:24 10,6 C 10,0 C 5,0 C 87 % 988,6 hPa 0,0 l/m 0 min 0 min 0 W/m 22,5 km/h (4 Bft) 97,73 %
05.11.2023 18:26 10,6 C 10,0 C 5,0 C 87 % 988,6 hPa 0,0 l/m 0 min 0 min 0 W/m 22,5 km/h (4 Bft) 96,00 %
05.11.2023 18:28 10,6 C 10,0 C 5,0 C 86 % 988,7 hPa 0,0 l/m 0 min 0 min 0 W/m 25,7 km/h (4 Bft) 95,74 %
05.11.2023 18:30 10,6 C 10,0 C 5,0 C 86 % 988,7 hPa 0,0 l/m 0 min 0 min 0 W/m 22,5 km/h (4 Bft) 97,83 %
05.11.2023 18:32 10,6 C 10,0 C 5,0 C 86 % 988,8 hPa 0,0 l/m 0 min 0 min 0 W/m 19,3 km/h (3 Bft) 95,74 %
05.11.2023 18:34 10,7 C 10,0 C 5,0 C 86 % 988,9 hPa 0,0 l/m 0 min 0 min 0 W/m 29,0 km/h (5 Bft) 93,62 %
05.11.2023 18:36 10,7 C 10,0 C 5,0 C 85 % 988,8 hPa 0,0 l/m 0 min 0 min 0 W/m 25,7 km/h (4 Bft) 93,62 %
05.11.2023 18:38 10,7 C 10,0 C 5,0 C 85 % 988,9 hPa 0,0 l/m 0 min 0 min 0 W/m 12,9 km/h (3 Bft) 95,74 %
05.11.2023 18:40 10,7 C 10,0 C 5,0 C 85 % 989,0 hPa 0,0 l/m 0 min 0 min 0 W/m 19,3 km/h (3 Bft) 95,74 %
05.11.2023 18:42 10,7 C 10,0 C 5,0 C 85 % 989,0 hPa 0,0 l/m 0 min 0 min 0 W/m 22,5 km/h (4 Bft) 91,49 %
05.11.2023 18:44 10,6 C 10,0 C 5,0 C 85 % 989,1 hPa 0,0 l/m 0 min 0 min 0 W/m 19,3 km/h (3 Bft) 91,49 %
05.11.2023 18:46 10,6 C 10,0 C 5,0 C 85 % 989,1 hPa 0,0 l/m 0 min 0 min 0 W/m 9,7 km/h (2 Bft) 93,62 %
05.11.2023 18:48 10,6 C 9,4 C 5,0 C 85 % 989,2 hPa 0,0 l/m 0 min 0 min 0 W/m 9,7 km/h (2 Bft) 93,48 %
05.11.2023 18:50 10,6 C 9,4 C 5,0 C 85 % 989,2 hPa 0,0 l/m 0 min 0 min 0 W/m 16,1 km/h (3 Bft) 95,74 %
05.11.2023 18:52 10,5 C 9,4 C 5,0 C 85 % 989,3 hPa 0,0 l/m 0 min 0 min 0 W/m 25,7 km/h (4 Bft) 93,62 %
05.11.2023 18:54 10,5 C 9,4 C 5,0 C 85 % 989,4 hPa 0,0 l/m 0 min 0 min 0 W/m 19,3 km/h (3 Bft) 93,62 %
05.11.2023 18:56 10,4 C 9,4 C 5,0 C 85 % 989,4 hPa 0,0 l/m 0 min 0 min 0 W/m 22,5 km/h (4 Bft) 93,62 %
05.11.2023 18:58 10,4 C 9,4 C 5,0 C 85 % 989,4 hPa 0,0 l/m 0 min 0 min 0 W/m 16,1 km/h (3 Bft) 95,74 %
05.11.2023 19:00 10,4 C 9,4 C 5,0 C 85 % 989,5 hPa 0,0 l/m 0 min 0 min 0 W/m 12,9 km/h (3 Bft) 97,87 %
05.11.2023 19:02 10,4 C 9,4 C 5,0 C 86 % 989,5 hPa 0,0 l/m 0 min 0 min 0 W/m 25,7 km/h (4 Bft) 97,87 %
05.11.2023 19:04 10,4 C 9,4 C 5,0 C 86 % 989,5 hPa 0,0 l/m 0 min 0 min 0 W/m 19,3 km/h (3 Bft) 98,08 %
05.11.2023 19:06 10,4 C 9,4 C 5,0 C 86 % 989,6 hPa 0,0 l/m 0 min 0 min 0 W/m 16,1 km/h (3 Bft) 97,92 %
05.11.2023 19:08 10,4 C 9,4 C 5,0 C 86 % 989,7 hPa 0,0 l/m 0 min 0 min 0 W/m 19,3 km/h (3 Bft) 97,87 %
05.11.2023 19:10 10,4 C 9,4 C 5,0 C 86 % 989,7 hPa 0,0 l/m 0 min 0 min 0 W/m 16,1 km/h (3 Bft) 100,00 %
05.11.2023 19:12 10,4 C 9,4 C 5,0 C 86 % 989,7 hPa 0,0 l/m 0 min 0 min 0 W/m 19,3 km/h (3 Bft) 97,87 %
05.11.2023 19:14 10,4 C 9,4 C 5,0 C 86 % 989,8 hPa 0,0 l/m 0 min 0 min 0 W/m 16,1 km/h (3 Bft) 95,74 %
05.11.2023 19:16 10,4 C 9,4 C 5,0 C 86 % 989,8 hPa 0,0 l/m 0 min 0 min 0 W/m 25,7 km/h (4 Bft) 95,74 %
05.11.2023 19:18 10,4 C 9,4 C 5,0 C 86 % 989,8 hPa 0,0 l/m 0 min 0 min 0 W/m 12,9 km/h (3 Bft) 97,87 %
05.11.2023 19:20 10,4 C 9,4 C 5,0 C 86 % 989,9 hPa 0,0 l/m 0 min 0 min 0 W/m 22,5 km/h (4 Bft) 97,87 %
05.11.2023 19:22 10,4 C 9,4 C 5,0 C 86 % 989,9 hPa 0,0 l/m 0 min 0 min 0 W/m 16,1 km/h (3 Bft) 97,83 %
05.11.2023 19:24 10,4 C 9,4 C 5,0 C 86 % 990,0 hPa 0,0 l/m 0 min 0 min 0 W/m 22,5 km/h (4 Bft) 97,87 %
05.11.2023 19:26 10,4 C 9,4 C 5,0 C 86 % 990,1 hPa 0,0 l/m 0 min 0 min 0 W/m 12,9 km/h (3 Bft) 91,49 %
05.11.2023 19:28 10,3 C 9,4 C 5,0 C 86 % 990,1 hPa 0,0 l/m 0 min 0 min 0 W/m 16,1 km/h (3 Bft) 100,00 %
05.11.2023 19:30 10,3 C 9,4 C 5,0 C 86 % 990,2 hPa 0,0 l/m 0 min 0 min 0 W/m 19,3 km/h (3 Bft) 97,87 %
05.11.2023 19:32 10,3 C 9,4 C 5,6 C 86 % 990,2 hPa 0,0 l/m 0 min 0 min 0 W/m 16,1 km/h (3 Bft) 93,62 %
05.11.2023 19:34 10,3 C 9,4 C 5,6 C 86 % 990,2 hPa 0,0 l/m 0 min 0 min 0 W/m 16,1 km/h (3 Bft) 43,75 %
05.11.2023 19:36 10,3 C 9,4 C 5,6 C 86 % 990,3 hPa 0,0 l/m 0 min 0 min 0 W/m 12,9 km/h (3 Bft) 65,91 %
05.11.2023 19:38 10,2 C 9,4 C 5,6 C 86 % 990,3 hPa 0,0 l/m 0 min 0 min 0 W/m 22,5 km/h (4 Bft) 97,83 %
05.11.2023 19:40 10,2 C 9,4 C 5,6 C 86 % 990,3 hPa 0,0 l/m 0 min 0 min 0 W/m 25,7 km/h (4 Bft) 100,00 %
05.11.2023 19:42 10,2 C 9,4 C 5,6 C 86 % 990,3 hPa 0,0 l/m 0 min 0 min 0 W/m 25,7 km/h (4 Bft) 100,00 %
05.11.2023 19:44 10,2 C 9,4 C 5,6 C 86 % 990,5 hPa 0,0 l/m 0 min 0 min 0 W/m 32,2 km/h (5 Bft) 97,87 %
05.11.2023 19:46 10,2 C 9,4 C 6,1 C 86 % 990,5 hPa 0,0 l/m 0 min 0 min 0 W/m 22,5 km/h (4 Bft) 100,00 %
05.11.2023 19:48 10,2 C 9,4 C 6,1 C 86 % 990,5 hPa 0,0 l/m 0 min 0 min 0 W/m 16,1 km/h (3 Bft) 97,87 %
05.11.2023 19:50 10,2 C 9,4 C 6,1 C 86 % 990,6 hPa 0,0 l/m 0 min 0 min 0 W/m 12,9 km/h (3 Bft) 97,87 %
05.11.2023 19:52 10,2 C 9,4 C 6,1 C 87 % 990,6 hPa 0,0 l/m 0 min 0 min 0 W/m 16,1 km/h (3 Bft) 97,87 %
05.11.2023 19:54 10,1 C 9,4 C 6,1 C 87 % 990,6 hPa 0,0 l/m 0 min 0 min 0 W/m 12,9 km/h (3 Bft) 100,00 %
05.11.2023 19:56 10,1 C 9,4 C 6,1 C 87 % 990,6 hPa 0,0 l/m 0 min 0 min 0 W/m 19,3 km/h (3 Bft) 97,96 %
05.11.2023 19:58 10,1 C 9,4 C 6,1 C 87 % 990,7 hPa 0,0 l/m 0 min 0 min 0 W/m 22,5 km/h (4 Bft) 100,00 %
05.11.2023 20:00 10,1 C 9,4 C 6,1 C 87 % 990,7 hPa 0,0 l/m 0 min 0 min 0 W/m 16,1 km/h (3 Bft) 100,00 %
05.11.2023 20:02 10,1 C 9,4 C 6,1 C 87 % 990,7 hPa 0,0 l/m 0 min 0 min 0 W/m 12,9 km/h (3 Bft) 97,87 %
05.11.2023 20:04 10,1 C 9,4 C 6,1 C 87 % 990,8 hPa 0,0 l/m 0 min 0 min 0 W/m 22,5 km/h (4 Bft) 100,00 %
05.11.2023 20:06 10,1 C 9,4 C 6,1 C 87 % 990,8 hPa 0,0 l/m 0 min 0 min 0 W/m 25,7 km/h (4 Bft) 100,00 %
05.11.2023 20:08 10,1 C 9,4 C 6,1 C 87 % 990,9 hPa 0,0 l/m 0 min 0 min 0 W/m 12,9 km/h (3 Bft) 97,87 %
05.11.2023 20:10 10,1 C 9,4 C 6,1 C 87 % 990,9 hPa 0,0 l/m 0 min 0 min 0 W/m 16,1 km/h (3 Bft) 100,00 %
05.11.2023 20:12 10,1 C 9,4 C 6,1 C 87 % 991,0 hPa 0,0 l/m 0 min 0 min 0 W/m 32,2 km/h (5 Bft) 100,00 %
05.11.2023 20:14 10,1 C 9,4 C 6,1 C 87 % 991,0 hPa 0,0 l/m 0 min 0 min 0 W/m 19,3 km/h (3 Bft) 95,74 %
05.11.2023 20:16 10,1 C 9,4 C 6,1 C 87 % 991,0 hPa 0,0 l/m 0 min 0 min 0 W/m 22,5 km/h (4 Bft) 95,74 %
05.11.2023 20:18 10,1 C 9,4 C 6,1 C 87 % 991,0 hPa 0,0 l/m 0 min 0 min 0 W/m 16,1 km/h (3 Bft) 98,15 %
05.11.2023 20:20 10,1 C 9,4 C 6,1 C 87 % 991,1 hPa 0,0 l/m 0 min 0 min 0 W/m 12,9 km/h (3 Bft) 95,74 %
05.11.2023 20:22 10,1 C 9,4 C 6,1 C 87 % 991,1 hPa 0,0 l/m 0 min 0 min 0 W/m 19,3 km/h (3 Bft) 97,37 %
05.11.2023 20:24 10,1 C 9,4 C 6,1 C 87 % 991,1 hPa 0,0 l/m 0 min 0 min 0 W/m 16,1 km/h (3 Bft) 95,83 %
05.11.2023 20:26 10,1 C 9,4 C 6,1 C 86 % 991,1 hPa 0,0 l/m 0 min 0 min 0 W/m 12,9 km/h (3 Bft) 93,62 %
05.11.2023 20:28 10,1 C 9,4 C 6,1 C 86 % 991,1 hPa 0,0 l/m 0 min 0 min 0 W/m 12,9 km/h (3 Bft) 97,87 %
05.11.2023 20:30 10,1 C 9,4 C 6,1 C 87 % 991,2 hPa 0,0 l/m 0 min 0 min 0 W/m 19,3 km/h (3 Bft) 93,62 %
05.11.2023 20:32 10,1 C 9,4 C 6,1 C 87 % 991,2 hPa 0,0 l/m 0 min 0 min 0 W/m 22,5 km/h (4 Bft) 95,74 %
05.11.2023 20:34 10,1 C 9,4 C 6,1 C 87 % 991,3 hPa 0,0 l/m 0 min 0 min 0 W/m 19,3 km/h (3 Bft) 95,74 %
05.11.2023 20:36 10,1 C 9,4 C 6,1 C 87 % 991,3 hPa 0,0 l/m 0 min 0 min 0 W/m 19,3 km/h (3 Bft) 93,62 %
05.11.2023 20:38 10,1 C 9,4 C 6,1 C 87 % 991,4 hPa 0,0 l/m 0 min 0 min 0 W/m 25,7 km/h (4 Bft) 93,62 %
05.11.2023 20:40 10,2 C 9,4 C 6,1 C 87 % 991,4 hPa 0,0 l/m 0 min 0 min 0 W/m 19,3 km/h (3 Bft) 95,65 %
05.11.2023 20:42 10,2 C 9,4 C 6,1 C 87 % 991,5 hPa 0,0 l/m 0 min 0 min 0 W/m 35,4 km/h (5 Bft) 95,74 %
05.11.2023 20:44 10,2 C 9,4 C 6,1 C 87 % 991,5 hPa 0,0 l/m 0 min 0 min 0 W/m 38,6 km/h (5 Bft) 95,74 %
05.11.2023 20:46 10,2 C 9,4 C 6,1 C 87 % 991,6 hPa 0,0 l/m 0 min 0 min 0 W/m 19,3 km/h (3 Bft) 93,62 %
05.11.2023 20:48 10,2 C 9,4 C 6,1 C 87 % 991,6 hPa 0,0 l/m 0 min 0 min 0 W/m 25,7 km/h (4 Bft) 95,74 %
05.11.2023 20:50 10,2 C 9,4 C 6,1 C 87 % 991,7 hPa 0,0 l/m 0 min 0 min 0 W/m 16,1 km/h (3 Bft) 97,87 %
05.11.2023 20:52 10,2 C 9,4 C 6,1 C 87 % 991,8 hPa 0,0 l/m 0 min 0 min 0 W/m 22,5 km/h (4 Bft) 97,87 %
05.11.2023 20:54 10,2 C 9,4 C 6,1 C 87 % 991,8 hPa 0,0 l/m 0 min 0 min 0 W/m 22,5 km/h (4 Bft) 97,87 %
05.11.2023 20:56 10,2 C 9,4 C 6,1 C 87 % 991,8 hPa 0,0 l/m 0 min 0 min 0 W/m 22,5 km/h (4 Bft) 97,92 %
05.11.2023 20:58 10,2 C 9,4 C 6,1 C 87 % 991,9 hPa 0,0 l/m 0 min 0 min 0 W/m 12,9 km/h (3 Bft) 97,87 %
05.11.2023 21:00 10,2 C 9,4 C 6,1 C 87 % 991,8 hPa 0,0 l/m 0 min 0 min 0 W/m 19,3 km/h (3 Bft) 91,49 %
05.11.2023 21:02 10,2 C 9,4 C 6,1 C 87 % 991,9 hPa 0,0 l/m 0 min 0 min 0 W/m 25,7 km/h (4 Bft) 95,74 %
05.11.2023 21:04 10,2 C 9,4 C 6,1 C 87 % 992,0 hPa 0,0 l/m 0 min 0 min 0 W/m 16,1 km/h (3 Bft) 97,73 %
05.11.2023 21:06 10,2 C 9,4 C 6,1 C 87 % 992,1 hPa 0,0 l/m 0 min 0 min 0 W/m 22,5 km/h (4 Bft) 98,44 %
05.11.2023 21:08 10,2 C 9,4 C 6,1 C 87 % 992,1 hPa 0,0 l/m 0 min 0 min 0 W/m 19,3 km/h (3 Bft) 100,00 %
05.11.2023 21:10 10,2 C 9,4 C 6,1 C 87 % 992,1 hPa 0,0 l/m 0 min 0 min 0 W/m 16,1 km/h (3 Bft) 97,87 %
05.11.2023 21:12 10,2 C 9,4 C 6,1 C 87 % 992,2 hPa 0,0 l/m 0 min 0 min 0 W/m 12,9 km/h (3 Bft) 98,11 %
05.11.2023 21:14 10,2 C 9,4 C 6,1 C 87 % 992,2 hPa 0,0 l/m 0 min 0 min 0 W/m 16,1 km/h (3 Bft) 85,11 %
05.11.2023 21:16 10,1 C 9,4 C 6,1 C 88 % 992,2 hPa 0,0 l/m 0 min 0 min 0 W/m 16,1 km/h (3 Bft) 70,21 %
05.11.2023 21:18 10,1 C 9,4 C 6,1 C 88 % 992,3 hPa 0,0 l/m 0 min 0 min 0 W/m 16,1 km/h (3 Bft) 97,87 %
05.11.2023 21:20 10,1 C 9,4 C 6,1 C 88 % 992,4 hPa 0,0 l/m 0 min 0 min 0 W/m 19,3 km/h (3 Bft) 97,87 %
05.11.2023 21:22 10,1 C 9,4 C 6,1 C 88 % 992,4 hPa 0,0 l/m 0 min 0 min 0 W/m 12,9 km/h (3 Bft) 100,00 %
05.11.2023 21:24 10,1 C 9,4 C 6,1 C 88 % 992,4 hPa 0,0 l/m 0 min 0 min 0 W/m 16,1 km/h (3 Bft) 100,00 %
05.11.2023 21:26 10,1 C 9,4 C 6,1 C 88 % 992,5 hPa 0,0 l/m 0 min 0 min 0 W/m 12,9 km/h (3 Bft) 100,00 %
05.11.2023 21:28 10,1 C 9,4 C 6,1 C 88 % 992,5 hPa 0,0 l/m 0 min 0 min 0 W/m 16,1 km/h (3 Bft) 100,00 %
05.11.2023 21:30 10,0 C 9,4 C 6,1 C 88 % 992,6 hPa 0,0 l/m 0 min 0 min 0 W/m 16,1 km/h (3 Bft) 100,00 %
05.11.2023 21:32 10,0 C 9,4 C 6,1 C 88 % 992,6 hPa 0,0 l/m 0 min 0 min 0 W/m 19,3 km/h (3 Bft) 100,00 %
05.11.2023 21:34 10,0 C 9,4 C 6,1 C 88 % 992,6 hPa 0,0 l/m 0 min 0 min 0 W/m 16,1 km/h (3 Bft) 100,00 %
05.11.2023 21:36 10,0 C 9,4 C 6,1 C 89 % 992,6 hPa 0,0 l/m 0 min 0 min 0 W/m 16,1 km/h (3 Bft) 100,00 %
05.11.2023 21:38 10,0 C 9,4 C 6,1 C 89 % 992,7 hPa 0,0 l/m 0 min 0 min 0 W/m 16,1 km/h (3 Bft) 100,00 %
05.11.2023 21:40 10,0 C 9,4 C 6,1 C 89 % 992,7 hPa 0,0 l/m 0 min 0 min 0 W/m 19,3 km/h (3 Bft) 100,00 %
05.11.2023 21:42 9,9 C 8,9 C 6,1 C 89 % 992,7 hPa 0,0 l/m 0 min 0 min 0 W/m 22,5 km/h (4 Bft) 100,00 %
05.11.2023 21:44 9,9 C 8,9 C 6,1 C 89 % 992,8 hPa 0,0 l/m 0 min 0 min 0 W/m 19,3 km/h (3 Bft) 100,00 %
05.11.2023 21:46 9,9 C 9,4 C 6,1 C 89 % 992,8 hPa 0,0 l/m 0 min 0 min 0 W/m 22,5 km/h (4 Bft) 100,00 %
05.11.2023 21:48 9,9 C 9,4 C 6,1 C 89 % 992,8 hPa 0,0 l/m 0 min 0 min 0 W/m 25,7 km/h (4 Bft) 100,00 %
05.11.2023 21:50 9,9 C 9,4 C 6,1 C 89 % 992,8 hPa 0,0 l/m 0 min 0 min 0 W/m 19,3 km/h (3 Bft) 97,87 %
05.11.2023 21:52 9,9 C 9,4 C 6,1 C 89 % 992,9 hPa 0,0 l/m 0 min 0 min 0 W/m 16,1 km/h (3 Bft) 97,87 %
05.11.2023 21:54 9,9 C 9,4 C 6,1 C 89 % 992,9 hPa 0,0 l/m 0 min 0 min 0 W/m 19,3 km/h (3 Bft) 97,96 %
05.11.2023 21:56 9,9 C 9,4 C 6,1 C 89 % 992,9 hPa 0,0 l/m 0 min 0 min 0 W/m 16,1 km/h (3 Bft) 97,87 %
05.11.2023 21:58 9,9 C 8,9 C 6,1 C 89 % 992,9 hPa 0,0 l/m 0 min 0 min 0 W/m 16,1 km/h (3 Bft) 97,87 %
05.11.2023 22:00 9,9 C 8,9 C 6,1 C 89 % 993,0 hPa 0,0 l/m 0 min 0 min 0 W/m 19,3 km/h (3 Bft) 95,74 %
05.11.2023 22:02 9,9 C 8,9 C 6,1 C 89 % 993,0 hPa 0,0 l/m 0 min 0 min 0 W/m 12,9 km/h (3 Bft) 97,83 %
05.11.2023 22:04 9,9 C 8,9 C 6,1 C 89 % 993,1 hPa 0,0 l/m 0 min 0 min 0 W/m 16,1 km/h (3 Bft) 97,73 %
05.11.2023 22:06 9,9 C 8,9 C 6,1 C 90 % 993,1 hPa 0,0 l/m 0 min 0 min 0 W/m 25,7 km/h (4 Bft) 97,87 %
05.11.2023 22:08 9,9 C 9,4 C 6,1 C 90 % 993,1 hPa 0,0 l/m 0 min 0 min 0 W/m 25,7 km/h (4 Bft) 93,62 %
05.11.2023 22:10 9,9 C 9,4 C 6,1 C 90 % 993,1 hPa 0,0 l/m 0 min 0 min 0 W/m 16,1 km/h (3 Bft) 93,62 %
05.11.2023 22:12 9,9 C 8,9 C 6,1 C 90 % 993,2 hPa 0,0 l/m 0 min 0 min 0 W/m 19,3 km/h (3 Bft) 95,74 %
05.11.2023 22:14 9,9 C 9,4 C 6,1 C 89 % 993,2 hPa 0,0 l/m 0 min 0 min 0 W/m 22,5 km/h (4 Bft) 95,65 %
05.11.2023 22:16 9,9 C 8,9 C 6,1 C 90 % 993,2 hPa 0,0 l/m 0 min 0 min 0 W/m 16,1 km/h (3 Bft) 95,74 %
05.11.2023 22:18 9,9 C 9,4 C 6,1 C 90 % 993,3 hPa 0,0 l/m 0 min 0 min 0 W/m 22,5 km/h (4 Bft) 95,74 %
05.11.2023 22:20 9,9 C 9,4 C 6,1 C 90 % 993,4 hPa 0,0 l/m 0 min 0 min 0 W/m 16,1 km/h (3 Bft) 95,74 %
05.11.2023 22:22 9,9 C 9,4 C 6,1 C 90 % 993,3 hPa 0,0 l/m 0 min 0 min 0 W/m 16,1 km/h (3 Bft) 93,62 %
05.11.2023 22:24 9,9 C 9,4 C 6,1 C 90 % 993,4 hPa 0,0 l/m 0 min 0 min 0 W/m 16,1 km/h (3 Bft) 95,74 %
05.11.2023 22:26 9,9 C 8,9 C 6,1 C 89 % 993,4 hPa 0,0 l/m 0 min 0 min 0 W/m 16,1 km/h (3 Bft) 91,49 %
05.11.2023 22:28 9,9 C 8,9 C 6,1 C 90 % 993,5 hPa 0,0 l/m 0 min 0 min 0 W/m 12,9 km/h (3 Bft) 94,34 %
05.11.2023 22:30 9,9 C 8,9 C 6,1 C 90 % 993,4 hPa 0,0 l/m 0 min 0 min 0 W/m 16,1 km/h (3 Bft) 93,62 %
05.11.2023 22:32 9,9 C 8,9 C 6,1 C 90 % 993,5 hPa 0,0 l/m 0 min 0 min 0 W/m 22,5 km/h (4 Bft) 95,74 %
05.11.2023 22:34 9,9 C 9,4 C 6,1 C 90 % 993,7 hPa 0,0 l/m 0 min 0 min 0 W/m 25,7 km/h (4 Bft) 95,74 %
05.11.2023 22:36 9,9 C 9,4 C 6,1 C 90 % 993,7 hPa 0,0 l/m 0 min 0 min 0 W/m 25,7 km/h (4 Bft) 95,74 %
05.11.2023 22:38 9,9 C 9,4 C 6,1 C 90 % 993,6 hPa 0,0 l/m 0 min 0 min 0 W/m 16,1 km/h (3 Bft) 95,74 %
05.11.2023 22:40 9,9 C 9,4 C 6,1 C 90 % 993,7 hPa 0,0 l/m 0 min 0 min 0 W/m 25,7 km/h (4 Bft) 95,65 %
05.11.2023 22:42 9,9 C 9,4 C 6,1 C 89 % 993,9 hPa 0,0 l/m 0 min 0 min 0 W/m 22,5 km/h (4 Bft) 95,74 %
05.11.2023 22:44 10,0 C 9,4 C 6,1 C 89 % 993,8 hPa 0,0 l/m 0 min 0 min 0 W/m 25,7 km/h (4 Bft) 100,00 %
05.11.2023 22:46 10,0 C 9,4 C 6,1 C 89 % 993,8 hPa 0,0 l/m 0 min 0 min 0 W/m 16,1 km/h (3 Bft) 100,00 %
05.11.2023 22:48 9,9 C 8,9 C 6,1 C 89 % 993,9 hPa 0,0 l/m 0 min 0 min 0 W/m 19,3 km/h (3 Bft) 100,00 %
05.11.2023 22:50 9,9 C 8,9 C 6,1 C 89 % 993,8 hPa 0,0 l/m 0 min 0 min 0 W/m 12,9 km/h (3 Bft) 100,00 %
05.11.2023 22:52 9,9 C 8,9 C 6,1 C 89 % 994,0 hPa 0,0 l/m 0 min 0 min 0 W/m 22,5 km/h (4 Bft) 95,74 %
05.11.2023 22:54 9,9 C 8,9 C 6,1 C 89 % 993,9 hPa 0,0 l/m 0 min 0 min 0 W/m 16,1 km/h (3 Bft) 100,00 %
05.11.2023 22:56 9,9 C 8,9 C 6,1 C 89 % 994,0 hPa 0,0 l/m 0 min 0 min 0 W/m 22,5 km/h (4 Bft) 100,00 %
05.11.2023 22:58 9,9 C 8,9 C 6,1 C 89 % 994,0 hPa 0,0 l/m 0 min 0 min 0 W/m 19,3 km/h (3 Bft) 97,83 %
05.11.2023 23:00 9,8 C 8,9 C 6,1 C 89 % 994,0 hPa 0,0 l/m 0 min 0 min 0 W/m 16,1 km/h (3 Bft) 97,87 %
05.11.2023 23:02 9,8 C 8,9 C 5,6 C 89 % 994,0 hPa 0,0 l/m 0 min 0 min 0 W/m 19,3 km/h (3 Bft) 95,56 %
05.11.2023 23:04 9,8 C 8,9 C 5,6 C 89 % 994,0 hPa 0,0 l/m 0 min 0 min 0 W/m 19,3 km/h (3 Bft) 97,73 %
05.11.2023 23:10 9,8 C 8,9 C 5,6 C 89 % 994,1 hPa 0,0 l/m 0 min 0 min 0 W/m 19,3 km/h (3 Bft) 95,95 %
05.11.2023 23:12 9,8 C 8,9 C 5,6 C 89 % 994,1 hPa 0,0 l/m 0 min 0 min 0 W/m 16,1 km/h (3 Bft) 95,65 %
05.11.2023 23:14 9,8 C 8,9 C 5,6 C 89 % 994,1 hPa 0,0 l/m 0 min 0 min 0 W/m 16,1 km/h (3 Bft) 97,87 %
05.11.2023 23:16 9,8 C 8,9 C 5,6 C 89 % 994,2 hPa 0,0 l/m 0 min 0 min 0 W/m 22,5 km/h (4 Bft) 95,74 %
05.11.2023 23:18 9,8 C 8,9 C 5,6 C 89 % 994,2 hPa 0,0 l/m 0 min 0 min 0 W/m 35,4 km/h (5 Bft) 97,87 %
05.11.2023 23:20 9,8 C 8,9 C 5,6 C 89 % 994,2 hPa 0,0 l/m 0 min 0 min 0 W/m 19,3 km/h (3 Bft) 97,14 %
05.11.2023 23:22 9,8 C 8,9 C 5,6 C 89 % 994,3 hPa 0,0 l/m 0 min 0 min 0 W/m 25,7 km/h (4 Bft) 96,61 %
05.11.2023 23:24 9,8 C 8,9 C 5,6 C 89 % 994,3 hPa 0,0 l/m 0 min 0 min 0 W/m 12,9 km/h (3 Bft) 97,14 %
05.11.2023 23:26 9,8 C 8,9 C 5,6 C 89 % 994,3 hPa 0,0 l/m 0 min 0 min 0 W/m 19,3 km/h (3 Bft) 97,87 %
05.11.2023 23:28 9,8 C 8,9 C 5,6 C 90 % 994,3 hPa 0,0 l/m 0 min 0 min 0 W/m 22,5 km/h (4 Bft) 97,87 %
05.11.2023 23:30 9,8 C 8,9 C 5,6 C 90 % 994,3 hPa 0,0 l/m 0 min 0 min 0 W/m 22,5 km/h (4 Bft) 95,83 %
05.11.2023 23:32 9,8 C 8,9 C 5,6 C 90 % 994,3 hPa 0,0 l/m 0 min 0 min 0 W/m 22,5 km/h (4 Bft) 97,87 %
05.11.2023 23:34 9,8 C 8,9 C 5,6 C 90 % 994,3 hPa 0,0 l/m 0 min 0 min 0 W/m 22,5 km/h (4 Bft) 97,87 %
05.11.2023 23:36 9,8 C 8,9 C 5,6 C 90 % 994,3 hPa 0,0 l/m 0 min 0 min 0 W/m 19,3 km/h (3 Bft) 97,83 %
05.11.2023 23:38 9,8 C 8,9 C 5,6 C 90 % 994,3 hPa 0,0 l/m 0 min 0 min 0 W/m 19,3 km/h (3 Bft) 97,87 %
05.11.2023 23:40 9,8 C 8,9 C 5,6 C 90 % 994,3 hPa 0,0 l/m 0 min 0 min 0 W/m 22,5 km/h (4 Bft) 100,00 %
05.11.2023 23:42 9,8 C 8,9 C 5,6 C 90 % 994,4 hPa 0,0 l/m 0 min 0 min 0 W/m 19,3 km/h (3 Bft) 100,00 %
05.11.2023 23:44 9,8 C 8,9 C 6,1 C 90 % 994,4 hPa 0,0 l/m 0 min 0 min 0 W/m 29,0 km/h (5 Bft) 100,00 %
05.11.2023 23:46 9,8 C 8,9 C 6,1 C 90 % 994,4 hPa 0,0 l/m 0 min 0 min 0 W/m 16,1 km/h (3 Bft) 100,00 %
05.11.2023 23:48 9,8 C 9,4 C 6,1 C 90 % 994,4 hPa 0,0 l/m 0 min 0 min 0 W/m 25,7 km/h (4 Bft) 100,00 %
05.11.2023 23:50 9,8 C 8,9 C 6,1 C 90 % 994,5 hPa 0,0 l/m 0 min 0 min 0 W/m 16,1 km/h (3 Bft) 100,00 %
05.11.2023 23:52 9,8 C 9,4 C 6,1 C 90 % 994,4 hPa 0,0 l/m 0 min 0 min 0 W/m 25,7 km/h (4 Bft) 97,87 %
05.11.2023 23:54 9,9 C 9,4 C 6,1 C 90 % 994,5 hPa 0,0 l/m 0 min 0 min 0 W/m 38,6 km/h (5 Bft) 100,00 %
05.11.2023 23:56 9,9 C 9,4 C 6,1 C 90 % 994,6 hPa 0,0 l/m 0 min 0 min 0 W/m 19,3 km/h (3 Bft) 100,00 %
05.11.2023 23:58 10,0 C 9,4 C 6,1 C 90 % 994,5 hPa 0,0 l/m 0 min 0 min 0 W/m 29,0 km/h (5 Bft) 100,00 %
_ Min-Zeit 02:38 00:02 00:00 18:36 04:14 - - - - 06:38 00:30
Minimum _ 9,3 C 8,3 C 4,4 C 85 % 971,5 hPa - - - - 0,0 km/h (0 Bft) 37,50 %
_ Max-Zeit 14:44 10:14 11:12 03:56 23:56 02:00 00:00 16:10 11:12 12:08 00:00
Maximum _ 11,3 C 11,1 C 7,2 C 97 % 994,6 hPa 0,2 l/m 0 min 5 min 142 W/m 61,2 km/h
O-SO (7 Bft)
100,00 %
Durchschnitt _ 10,2 C 9,5 C 5,9 C 93 % 980,1 hPa #4,6 l/m #0 min. #5:33 h 54 W/m 15,4 km/h (3 Bft) 96,94 %
© 2023 W. Hausmann